GEFSSE_con_probscp_066.txt.gz
Probability
0 0 0 0 1 4 12 21 25 24 20 14 10 7 3 1 0 0 0 0 0 0 0 0 0 0 0 0 0 0 0 0 0 0 0 0 0 0 0 0 0 0 0
1 0 0 1 3 7 13 19 22 22 19 15 11 7 3 1 0 0 0 0 0 0 0 0 0 0 0 0 0 0 0 0 0 0 0 0 0 0 0 0 0 0 0
2 1 1 3 5 9 13 16 17 17 15 13 10 6 2 0 0 0 0 0 0 0 0 0 0 0 0 0 0 0 0 0 0 0 0 0 0 0 0 0 0 0 0
4 2 2 5 7 9 12 14 13 9 8 8 6 3 0 0 0 0 0 0 0 0 0 0 0 0 0 0 0 0 0 0 0 0 0 0 0 0 0 0 0 0 0
5 2 3 7 8 7 10 12 10 7 5 4 3 1 0 0 0 0 0 0 0 0 0 0 0 0 0 0 0 0 0 0 0 0 0 0 0 0 0 0 0 0 0
3 3 5 9 8 5 7 9 8 7 6 3 1 0 0 0 0 0 0 0 0 0 0 0 0 0 0 0 0 0 0 0 0 0 0 0 0 0 0 0 0 0 0
4 4 6 9 7 3 3 5 6 5 4 2 1 0 0 0 0 0 0 0 0 0 0 0 0 0 0 0 0 0 0 0 0 0 0 0 0 0 0 0 0 0 0
5 5 6 7 5 2 2 3 4 3 2 1 0 0 0 0 0 0 0 0 0 0 0 0 0 0 0 0 0 0 0 0 0 0 0 0 0 0 0 0 0 1 1
4 4 4 4 3 2 2 2 2 1 1 0 0 0 0 0 0 0 0 0 0 0 0 0 0 0 0 0 0 0 0 0 0 0 0 0 1 1 1 1 1 1 2
1 2 2 2 2 1 1 1 1 0 0 0 0 0 0 0 0 0 0 0 0 0 0 0 0 0 0 0 0 0 0 0 0 0 0 2 3 3 2 1 1 1 1
0 0 0 1 1 0 0 0 0 0 0 0 0 0 0 0 0 0 0 0 0 0 0 0 0 0 0 0 0 0 0 0 0 0 1 3 3 3 3 2 2 2 1
0 0 0 0 0 0 0 0 0 0 0 0 0 0 0 0 0 0 0 0 0 0 0 0 0 0 0 0 0 0 0 0 0 0 0 1 2 3 3 3 3 3 2
1 1 0 0 0 0 0 0 0 0 0 0 0 0 0 0 0 0 0 0 0 0 0 0 0 0 0 0 0 0 0 0 0 0 0 1 3 5 6 6 6 5 3
0 0 0 0 0 0 0 1 0 0 0 0 0 0 0 0 0 0 0 0 0 0 0 0 0 0 0 0 0 0 0 0 0 0 1 4 7 8 8 7 7 6 4
0 0 0 1 1 1 0 1 0 0 0 0 0 0 0 0 0 0 0 0 0 0 0 0 0 0 0 0 0 0 0 0 0 0 3 6 8 7 6 5 4 4 4
0 0 0 1 2 1 1 1 1 0 0 0 0 0 0 0 0 0 0 0 0 0 0 0 0 0 0 0 0 0 0 0 0 0 2 4 5 5 5 5 5 4 4
1 0 1 2 2 1 1 1 1 0 0 0 0 0 0 0 0 0 0 0 0 0 0 0 0 0 0 0 0 0 0 0 0 0 0 1 1 3 5 8 8 6 5
2 1 2 3 3 2 1 0 0 0 0 0 0 0 0 0 0 0 0 0 0 0 0 0 0 0 0 0 0 0 0 0 0 0 0 0 0 1 4 6 7 6 5
5 5 6 7 7 5 4 3 2 2 1 1 1 1 1 1 0 0 0 0 0 0 0 0 0 0 0 0 0 0 0 0 0 0 0 0 0 0 1 2 3 3 3
10 12 15 18 18 16 15 13 11 8 5 3 2 2 2 2 2 1 0 0 0 0 0 0 0 0 0 0 0 0 0 0 0 0 0 0 0 0 0 0 1 1 2
19 21 26 30 31 32 34 31 26 19 10 4 3 3 3 3 3 3 1 0 1 1 1 0 0 0 0 0 0 0 0 0 0 0 0 0 0 0 0 0 0 0 1
25 25 28 34 38 44 48 44 37 27 15 7 5 4 4 3 2 3 2 2 2 2 1 0 0 0 0 0 0 0 0 0 0 0 0 0 0 0 0 0 0 0 0
25 25 27 32 38 44 48 47 40 29 19 13 9 7 5 2 1 2 2 3 3 2 1 0 0 0 0 0 0 0 0 0 0 0 0 0 0 0 0 0 0 0 0
22 25 27 31 33 34 35 37 35 28 21 15 11 8 5 2 1 1 1 2 2 1 1 0 0 0 0 0 0 0 0 0 0 0 0 0 0 0 0 0 0 0 0
19 20 21 22 22 19 20 23 25 22 17 12 8 5 3 1 0 0 0 1 1 0 0 0 0 0 0 0 0 0 0 0 0 0 0 0 0 0 0 0 0 0 0
14 14 13 12 11 11 12 14 16 14 12 9 5 3 1 0 0 0 0 0 0 0 0 0 0 0 0 0 0 0 0 0 0 0 0 0 0 0 0 0 0 0 0

GEFSSE_con_probscp_072.txt.gz
Probability
8 9 9 6 3 3 4 6 9 9 7 4 2 0 0 0 0 0 0 0 0 0 0 0 0 0 0 0 0 0 0 0 0 0 0 0 0 0 0 0 0 0 0
10 10 10 8 6 7 10 16 20 20 16 11 6 3 1 0 0 0 0 0 0 0 0 0 0 0 0 0 0 0 0 0 0 0 0 0 0 0 0 0 0 0 0
14 13 10 9 10 11 18 29 36 35 30 24 17 10 3 0 0 0 0 0 0 0 0 0 0 0 0 0 0 0 0 0 0 0 0 0 0 0 0 0 0 0 0
14 12 8 8 11 15 24 36 45 46 41 35 26 16 7 2 0 0 0 0 0 0 0 0 0 0 0 0 0 0 0 0 0 0 0 0 0 0 0 0 0 0 0
10 7 6 7 10 17 27 39 49 53 49 43 35 22 10 3 0 0 0 0 0 0 0 0 0 0 0 0 0 0 0 0 0 0 0 0 0 0 0 0 0 0 0
5 3 5 9 10 15 26 37 49 57 57 51 42 27 11 3 0 0 0 0 0 0 0 0 0 0 0 0 0 0 0 0 0 0 0 0 0 0 0 0 0 0 0
1 1 4 8 10 13 21 32 43 53 56 51 41 28 13 3 1 0 0 0 0 0 0 0 0 0 0 0 0 0 0 0 0 0 0 0 0 0 0 0 0 0 0
0 0 2 4 6 9 17 25 34 42 45 40 33 24 13 5 2 1 0 0 0 0 0 0 0 0 0 0 0 0 0 0 0 0 0 0 0 1 0 0 0 0 0
0 0 1 1 1 4 9 17 24 30 32 28 23 18 12 7 3 1 0 0 0 0 0 0 0 0 0 0 0 0 0 0 0 0 0 1 2 1 0 0 0 0 0
0 0 0 0 0 1 3 7 13 17 19 17 15 12 8 5 3 1 0 0 0 0 0 0 0 0 0 0 0 0 0 0 0 0 1 3 5 3 1 0 0 0 0
2 1 0 0 0 0 0 2 4 6 7 7 7 5 3 1 1 0 0 0 0 0 0 0 0 0 0 0 0 0 0 0 0 0 3 8 9 4 2 0 0 0 0
7 3 0 0 0 0 2 3 3 3 3 2 2 1 0 0 0 0 0 0 0 0 0 0 0 0 0 0 0 0 0 0 0 0 5 12 11 5 2 1 0 0 0
10 5 1 0 0 1 3 6 7 7 5 3 2 1 0 0 0 0 0 0 0 0 1 1 1 1 0 0 0 0 0 0 0 0 6 13 13 7 3 2 1 1 1
12 7 2 2 2 3 5 6 7 7 6 5 4 2 1 1 0 0 0 0 0 0 1 2 2 1 0 0 0 0 0 0 0 1 6 13 15 10 5 4 3 2 3
13 9 4 2 3 5 6 5 5 5 5 5 4 3 2 2 2 2 2 1 1 1 2 2 1 1 1 1 0 0 0 0 0 1 5 12 14 11 9 6 4 3 3
12 10 6 2 2 4 6 6 6 7 7 7 6 5 5 5 6 6 5 5 4 4 5 4 4 5 4 3 1 0 1 1 2 1 4 9 12 12 13 11 7 5 3
12 10 6 2 1 3 6 9 10 10 10 8 8 8 9 10 11 11 11 11 11 13 15 17 16 15 12 9 7 5 6 8 6 3 4 7 10 13 15 14 11 8 7
9 8 6 3 3 6 10 13 13 13 11 10 10 12 14 14 15 17 19 23 28 31 31 30 29 27 24 21 19 15 14 15 12 7 5 7 9 11 12 12 10 9 8
9 11 10 10 11 14 16 17 17 17 15 15 17 19 19 20 21 25 32 40 45 48 45 39 36 35 33 30 24 18 16 16 13 9 5 5 6 8 8 7 6 5 5
19 20 20 22 26 29 30 29 29 29 27 28 29 28 27 27 29 35 42 47 51 51 48 42 37 35 32 27 18 13 13 10 8 6 3 2 3 4 4 4 4 4 4
34 33 32 35 42 48 50 50 49 48 45 41 38 37 34 32 34 38 41 43 46 44 39 34 30 25 21 16 12 10 8 4 2 2 2 1 1 1 1 2 3 4 4
47 46 46 50 57 62 64 65 66 62 53 43 40 39 34 30 30 31 33 34 35 31 25 21 18 14 10 7 7 8 5 1 0 1 1 0 0 1 1 1 1 2 2
53 55 58 61 67 70 69 68 68 63 50 38 34 32 27 21 20 22 23 23 21 18 14 11 9 7 4 3 3 4 2 1 0 0 0 0 0 0 0 0 0 0 0
53 56 59 62 66 69 68 64 62 56 44 31 25 21 16 11 10 13 13 11 9 7 5 3 2 1 1 2 2 2 1 0 0 0 0 0 0 0 0 0 0 0 0
42 45 49 52 54 56 55 53 50 43 31 20 15 11 8 5 5 6 6 4 3 2 1 0 0 0 1 1 1 1 0 0 0 0 0 0 0 0 0 0 0 0 0
30 34 39 41 42 43 43 41 38 30 20 13 9 7 6 4 4 4 2 1 0 0 0 0 0 0 0 1 0 0 0 0 0 0 0 0 0 0 0 0 0 0 0

GEFSSE_con_probscp_078.txt.gz
Probability
53 62 71 62 38 17 6 4 3 3 3 3 3 3 3 3 3 3 3 3 3 3 3 3 3 3 3 3 3 3 3 3 3 3 4 5 5 5 5 4 3 3 3
64 68 72 62 39 19 8 4 3 3 3 3 3 3 3 3 3 3 3 3 3 3 3 3 3 3 3 3 3 3 3 3 3 3 3 4 4 4 4 3 3 3 3
72 70 71 63 43 25 13 6 4 3 3 3 3 3 3 3 3 3 3 3 3 3 3 3 3 3 3 3 3 3 3 3 3 3 3 3 3 3 3 3 3 3 3
71 68 69 67 52 37 24 13 7 5 4 4 4 4 3 3 3 3 3 3 3 3 3 3 3 3 3 3 3 3 3 3 3 3 3 3 3 3 3 3 3 4 4
64 65 70 71 63 50 36 23 13 7 6 6 6 5 4 4 3 3 3 3 3 3 3 3 3 3 3 3 3 3 3 3 3 3 3 3 3 3 3 4 4 4 4
58 60 66 71 69 59 45 31 19 11 8 8 8 7 5 4 4 3 3 3 3 3 3 3 3 3 3 3 3 3 3 3 3 3 4 5 5 4 4 4 5 4 4
55 55 58 64 65 57 46 34 24 18 15 14 12 8 5 4 3 3 3 3 3 3 3 3 3 2 1 1 3 3 3 3 3 3 5 9 10 7 5 4 4 3 3
55 52 51 54 55 50 42 36 32 28 26 23 15 8 5 4 3 3 3 3 3 3 3 3 3 1 0 1 2 3 3 3 3 4 7 12 15 13 7 4 3 3 3
53 45 39 41 43 40 37 35 35 34 30 25 16 9 6 5 4 3 3 3 3 3 3 3 3 1 0 1 2 2 3 3 3 3 7 13 19 18 11 5 3 3 3
43 32 23 25 29 29 28 30 32 31 27 21 14 9 7 5 5 4 3 3 3 3 3 3 3 2 2 2 2 2 3 2 2 3 9 18 25 25 17 9 5 4 4
36 24 14 14 17 17 20 23 24 22 19 15 11 8 6 4 4 4 5 5 4 3 3 3 3 3 3 3 3 3 3 1 1 4 15 29 36 33 25 16 10 7 6
31 22 14 13 11 10 15 18 16 13 11 10 8 6 5 4 4 4 7 8 5 3 3 3 3 3 3 4 5 5 3 2 2 7 22 38 42 39 31 22 15 11 9
27 21 18 16 11 10 15 16 13 11 10 8 7 6 6 5 4 6 8 8 5 3 3 4 4 3 4 5 6 6 4 3 4 10 25 39 42 40 36 27 20 14 12
28 24 24 27 25 27 30 23 15 14 14 13 12 11 8 7 6 8 10 10 8 7 9 9 8 6 7 8 7 6 6 6 8 14 25 36 40 41 38 31 24 18 15
33 30 34 45 52 55 51 34 20 18 18 21 22 17 11 9 10 13 16 16 14 15 19 20 19 16 15 14 13 12 13 14 18 23 29 35 40 43 41 33 26 21 19
44 42 49 64 73 72 58 40 25 21 22 26 28 23 16 15 20 23 24 24 22 25 32 35 34 30 26 24 23 22 23 26 32 36 37 39 41 43 42 36 30 27 24
59 59 61 68 75 72 57 42 32 27 28 33 35 33 25 23 29 34 34 33 33 37 46 49 46 43 38 34 32 31 33 37 41 43 43 42 41 39 38 38 37 32 26
74 74 66 62 70 69 57 46 41 39 42 46 48 45 37 32 38 45 45 42 43 49 55 55 52 51 47 41 37 34 37 43 44 42 40 39 37 32 30 33 35 30 26
87 84 73 67 72 70 60 53 51 54 60 64 62 59 52 47 51 56 55 52 53 56 56 52 53 55 52 42 33 29 33 39 40 34 30 28 26 22 19 21 23 21 20
93 90 82 78 78 74 65 60 59 63 69 71 70 69 65 61 62 64 61 59 59 58 54 49 48 48 44 33 23 21 24 27 28 24 19 16 13 10 8 9 10 10 10
88 87 82 78 77 75 70 66 64 64 65 64 64 64 62 61 62 62 58 55 53 51 47 42 39 34 28 20 14 13 15 16 14 12 10 7 5 3 2 3 3 2 3
81 79 75 72 72 72 71 69 68 66 61 52 47 46 45 45 47 47 44 40 38 37 34 31 29 23 15 10 8 7 7 6 5 4 3 2 1 1 0 1 1 0 1
69 69 68 68 69 70 71 72 74 72 60 42 31 27 25 24 26 27 25 23 22 20 19 20 19 15 8 5 4 3 2 2 1 0 0 0 0 0 0 0 0 0 0
50 51 55 57 59 63 69 71 71 65 49 30 19 14 11 10 11 11 11 10 9 8 8 8 8 6 3 1 2 1 1 1 1 0 0 0 0 0 0 0 0 0 0
31 32 35 39 42 47 56 60 54 42 28 17 11 8 6 6 5 4 4 3 3 3 2 2 2 1 0 0 0 0 0 0 0 0 0 0 0 0 0 0 0 0 0
22 23 25 28 30 34 42 45 38 25 15 10 8 6 5 4 4 4 3 2 1 1 0 0 0 0 0 0 0 0 0 0 0 0 0 0 0 0 0 0 0 0 0

GEFSSE_con_probscp_084.txt.gz
Probability
3 4 6 8 11 13 13 10 7 7 8 8 11 13 9 6 4 3 2 2 2 1 0 0 0 0 0 0 0 0 0 0 0 0 0 0 0 0 0 0 0 0 0
7 7 9 12 15 17 16 12 8 8 8 9 11 10 6 3 2 1 1 1 1 0 0 0 0 0 0 0 0 0 0 0 0 0 0 0 0 0 0 0 0 0 0
14 12 12 17 20 19 16 13 10 8 7 7 8 5 2 1 1 1 0 0 0 0 0 0 0 0 0 0 0 0 0 0 0 0 0 0 0 0 0 0 0 0 0
21 16 15 19 23 21 16 12 9 6 4 3 2 1 0 0 0 0 0 0 0 0 0 0 0 0 0 0 0 0 0 0 0 0 0 0 0 0 0 0 0 0 0
25 20 19 22 25 24 19 13 10 5 3 2 1 0 0 0 0 0 0 0 0 0 0 0 0 0 0 0 0 0 0 0 0 0 0 0 0 0 0 0 0 0 0
31 27 25 28 29 25 20 16 12 7 3 2 1 0 0 0 0 0 0 0 0 0 0 0 0 0 0 0 0 0 0 0 0 0 0 0 0 1 1 0 0 0 0
42 37 34 35 32 25 21 19 15 9 4 1 1 0 0 0 0 0 0 0 0 0 0 0 0 0 0 0 0 0 0 0 0 0 0 0 1 2 2 1 0 0 0
52 48 44 38 31 24 20 20 17 10 4 1 0 0 0 0 0 0 0 0 0 0 0 0 0 0 0 0 0 0 0 0 0 0 0 0 1 3 3 2 1 0 0
52 52 47 37 27 21 19 18 16 10 5 2 1 0 0 0 0 0 0 0 0 0 0 0 0 0 0 0 0 0 0 0 0 0 0 0 3 6 6 4 2 1 1
42 44 42 35 26 20 17 16 15 11 7 5 3 1 0 0 0 0 0 0 0 0 0 0 0 0 0 0 0 0 0 0 0 0 0 1 5 10 10 7 4 3 2
32 34 35 34 28 21 17 16 14 12 9 7 4 2 0 0 0 0 0 0 0 0 0 0 0 0 0 0 0 0 0 0 0 0 0 3 8 12 12 10 8 7 6
27 29 32 32 27 22 19 18 17 14 9 6 4 2 1 0 0 0 0 0 0 0 0 0 0 0 0 0 0 0 0 0 0 0 2 7 13 15 15 13 12 11 10
26 28 29 28 24 21 20 19 17 13 7 4 3 2 1 0 0 0 0 0 0 0 0 0 0 0 0 0 0 0 0 0 0 0 4 13 19 19 17 17 16 14 13
29 27 25 22 20 19 19 17 14 9 4 3 2 1 0 0 0 0 0 0 0 0 0 0 0 0 0 0 0 0 0 0 1 1 6 17 21 19 18 19 19 19 18
29 26 21 18 17 18 18 15 10 5 2 1 1 0 0 0 0 0 0 0 0 0 0 0 0 0 0 0 0 0 0 1 1 1 6 15 20 21 22 22 23 25 26
27 25 21 17 16 17 17 13 7 3 1 0 0 0 0 0 0 0 0 0 0 0 0 0 0 0 0 0 0 0 0 0 1 1 4 11 18 22 24 25 25 27 27
31 28 23 20 18 16 14 10 4 1 0 0 0 0 0 0 0 1 1 1 0 0 0 0 0 0 0 0 0 0 0 0 0 1 2 5 11 15 19 23 25 24 23
41 36 30 27 23 19 14 7 3 1 1 1 1 0 1 1 2 2 2 2 1 1 1 1 1 0 0 0 0 0 0 0 0 0 1 1 3 6 11 17 19 19 19
43 43 41 36 31 26 19 13 9 6 5 4 2 1 2 3 4 3 3 3 3 2 2 2 2 1 1 1 0 0 0 0 0 0 0 0 0 1 4 9 12 13 14
41 44 45 41 37 33 29 26 20 15 11 8 6 4 3 5 7 5 4 4 3 3 3 3 2 1 1 0 0 0 0 0 0 0 0 0 0 0 1 2 4 5 7
38 39 38 39 39 37 36 33 25 18 12 10 8 5 3 5 7 6 5 4 3 3 3 2 1 1 0 0 0 0 0 0 0 0 0 0 0 0 0 0 1 1 2
30 29 28 32 36 36 35 29 20 14 10 7 5 2 2 4 5 5 3 2 1 2 1 1 0 0 0 0 0 0 0 0 0 0 0 0 0 0 0 0 0 0 0
19 19 20 24 29 30 29 24 16 11 7 4 1 0 1 3 4 3 2 1 0 0 0 0 0 0 0 0 0 0 0 0 0 0 0 0 0 0 0 0 0 0 0
14 15 16 18 21 22 22 20 14 9 5 2 0 0 1 2 3 3 3 2 1 0 0 0 0 0 0 0 0 0 0 0 0 0 0 0 0 0 0 0 0 0 0
12 12 14 15 16 16 15 12 9 5 2 0 0 0 0 1 2 2 2 2 1 0 0 0 0 0 0 0 0 0 0 0 0 0 0 0 0 0 0 0 0 0 0
10 11 12 14 14 12 9 7 4 2 0 0 0 0 0 0 1 1 1 1 1 0 0 0 0 0 0 0 0 0 0 0 0 0 0 0 0 0 0 0 0 0 0

GEFSSE_con_probscp_090.txt.gz
Probability
4 4 3 2 3 9 18 27 31 29 25 18 11 9 9 6 4 3 2 1 0 0 0 0 0 0 0 0 0 0 0 0 0 0 0 0 0 0 0 0 0 0 0
6 5 4 4 5 9 16 25 30 28 24 19 15 14 12 7 3 2 1 0 0 0 0 0 0 0 0 0 0 0 0 0 0 0 0 0 0 0 0 0 0 0 0
10 8 6 6 7 8 13 19 23 21 18 16 14 14 11 6 2 1 1 0 0 0 0 0 0 0 0 0 0 0 0 0 0 0 0 0 0 0 0 0 0 0 0
12 10 9 9 10 9 11 14 14 11 10 10 9 8 6 4 2 2 2 1 0 0 0 0 0 0 0 0 0 0 0 0 0 0 0 0 0 0 0 0 0 0 0
13 11 11 14 16 15 15 15 13 10 9 8 6 4 4 3 2 2 2 1 0 0 0 0 0 0 0 0 0 0 0 0 0 0 0 0 0 0 0 0 0 0 0
19 16 17 23 26 26 25 23 19 16 13 10 6 4 3 1 1 1 1 0 0 0 0 0 0 0 0 0 0 0 0 0 0 0 0 0 0 0 0 0 0 0 0
27 23 26 33 34 33 32 31 29 23 18 13 8 5 2 1 0 0 0 0 0 0 0 0 0 0 0 0 0 0 0 0 0 0 0 0 0 0 1 1 1 0 0
33 31 34 36 33 31 33 36 36 28 21 14 8 3 2 1 1 1 0 0 0 1 1 0 0 0 0 0 0 0 0 0 0 0 0 0 0 0 1 2 2 1 0
39 39 37 33 29 28 32 36 35 26 19 13 7 4 3 3 3 2 0 0 1 2 2 1 0 0 0 0 0 0 0 0 0 0 0 0 0 1 2 2 2 2 1
47 47 41 33 29 30 31 32 29 22 16 12 9 7 6 5 4 2 1 1 2 2 2 1 0 0 0 0 0 0 0 0 0 0 0 0 0 1 2 2 2 2 2
51 48 42 35 33 34 34 33 30 25 17 13 11 9 8 6 4 3 2 1 2 2 1 0 0 0 0 0 0 0 0 0 0 0 0 0 0 0 1 3 3 2 2
48 44 38 36 36 38 40 40 39 33 24 18 14 11 8 5 4 3 2 2 1 1 0 0 0 0 0 0 0 0 0 0 0 0 0 0 0 1 2 3 2 2 2
49 42 35 35 37 41 45 47 44 40 33 24 17 11 8 5 4 3 3 3 2 1 1 1 0 0 0 0 0 0 0 0 0 0 1 1 2 3 4 4 3 2 2
50 40 32 32 35 40 44 45 42 39 35 28 19 12 8 5 3 3 3 3 3 2 2 1 0 0 0 0 0 0 0 0 0 0 2 3 5 5 6 7 6 6 6
43 35 27 27 31 36 39 38 36 34 33 27 21 14 8 4 3 2 1 1 2 1 1 1 0 0 0 0 0 0 0 0 0 0 1 4 7 10 11 10 9 10 11
36 31 25 23 26 29 31 31 31 31 30 25 20 14 8 4 3 2 0 0 0 0 0 0 0 0 0 0 0 0 0 0 0 0 0 2 6 11 13 12 11 12 13
34 31 26 24 24 24 25 26 27 27 25 22 17 12 7 3 2 1 0 0 0 0 0 0 0 0 0 0 0 0 0 0 0 0 0 0 2 6 8 9 9 10 10
34 31 28 26 24 22 21 20 20 19 17 15 13 10 6 3 1 1 0 0 0 0 0 0 0 0 0 0 0 0 0 0 0 0 0 0 0 1 2 4 5 6 7
31 30 28 26 24 22 18 15 14 13 11 10 9 8 6 3 2 2 1 0 0 0 1 1 1 0 0 0 0 0 0 0 0 0 0 0 0 0 0 1 2 4 4
26 27 26 22 21 20 16 12 10 9 7 6 5 5 4 3 3 4 2 1 0 0 1 2 1 0 0 0 0 0 0 0 0 0 0 0 0 0 0 0 1 2 3
23 24 23 20 17 16 13 10 9 7 5 3 2 2 2 2 3 3 2 1 0 0 1 1 1 0 0 0 0 0 0 0 0 0 0 0 0 0 0 0 0 0 1
19 20 20 18 16 14 11 9 7 5 2 1 0 0 0 0 1 1 1 0 0 0 0 0 0 0 0 0 0 0 0 0 0 0 0 0 0 0 0 0 0 0 0
15 15 16 16 15 14 12 9 6 3 1 0 0 0 0 0 0 0 0 0 0 0 0 0 0 0 0 0 0 0 0 0 0 0 0 0 0 0 0 0 0 0 0
12 13 14 14 13 12 11 9 6 3 2 1 0 0 0 0 0 0 0 0 0 0 0 0 0 0 0 0 0 0 0 0 0 0 0 0 0 0 0 0 0 0 0
12 13 13 12 11 10 9 9 7 4 2 1 0 0 0 0 0 0 0 0 0 0 0 0 0 0 0 0 0 0 0 0 0 0 0 0 0 0 0 0 0 0 0
12 12 11 11 10 9 8 8 6 4 2 1 0 0 0 0 0 0 0 0 0 0 0 0 0 0 0 0 0 0 0 0 0 0 0 0 0 0 0 0 0 0 0

GEFSSE_con_probscp_096.txt.gz
Probability
9 18 25 23 18 15 14 11 8 10 11 8 5 3 1 0 0 0 0 0 0 0 0 0 0 0 0 0 0 0 0 0 0 0 0 0 0 0 0 0 0 0 0
16 25 32 30 25 23 22 20 19 20 21 18 13 8 4 2 0 0 0 0 0 0 0 0 0 0 0 0 0 0 0 0 0 0 0 0 0 0 0 0 0 0 0
28 33 39 40 38 36 36 37 38 39 39 36 27 18 11 5 1 0 0 0 0 0 0 0 0 0 0 0 0 0 0 0 0 0 0 0 0 0 0 0 0 0 0
36 40 44 48 49 49 49 53 56 56 55 50 41 30 20 10 3 1 0 0 0 0 0 0 0 0 0 0 0 0 0 0 0 0 0 0 0 0 0 0 0 0 0
37 42 50 55 55 54 55 61 64 64 63 59 50 38 26 15 7 3 1 0 0 0 0 0 0 0 0 0 0 0 0 0 0 0 0 0 0 0 0 0 0 0 0
34 39 50 57 57 54 54 60 65 66 66 64 56 44 31 20 11 5 1 0 0 0 0 0 0 0 0 0 0 0 0 0 0 0 0 0 0 0 0 0 0 0 0
28 34 46 56 56 53 53 57 62 65 65 65 60 48 35 24 16 8 3 0 0 0 0 0 0 0 0 0 0 0 0 0 0 0 0 0 0 0 0 0 0 0 0
24 31 44 52 52 51 52 56 60 64 63 60 58 51 41 32 23 15 7 2 0 0 0 0 0 0 0 0 0 0 0 0 0 0 0 0 0 0 0 0 0 0 0
22 29 38 43 43 44 47 51 57 60 56 51 49 49 47 40 29 20 12 5 2 1 1 0 0 0 0 0 0 0 0 0 0 0 0 0 0 0 0 0 0 0 0
25 29 33 34 34 35 37 43 48 51 48 42 40 41 40 34 26 19 14 9 5 2 1 2 1 0 0 0 0 0 0 0 0 0 0 0 0 0 0 0 0 0 0
37 37 36 35 34 32 33 37 40 40 38 32 30 29 25 20 17 14 13 12 8 4 3 3 2 1 0 0 0 0 0 0 0 0 0 0 0 0 0 0 0 0 1
50 49 45 44 43 40 40 41 38 36 34 27 22 20 18 17 16 13 13 13 11 7 4 3 3 2 1 0 0 0 0 0 0 0 1 2 1 0 0 0 0 1 2
59 56 52 52 52 48 47 46 43 43 42 32 25 25 25 24 21 18 16 15 13 10 6 4 4 3 1 0 0 0 0 0 0 0 2 3 3 2 1 0 0 1 2
61 59 55 54 55 53 51 52 52 54 53 46 40 37 34 31 28 24 20 18 15 12 10 7 5 4 1 0 0 0 0 0 0 1 4 6 7 6 4 3 2 2 1
62 60 55 53 57 59 59 60 60 60 58 56 51 44 37 35 33 30 28 24 19 15 13 10 8 6 3 1 1 1 1 1 1 4 7 9 11 12 10 8 6 3 2
61 60 57 56 61 64 66 68 65 59 57 56 53 45 38 36 36 37 37 34 27 20 16 13 12 11 7 3 2 3 3 2 3 5 8 9 9 11 12 11 9 5 3
58 61 61 60 63 67 69 69 63 55 50 50 50 45 40 38 39 42 44 42 36 29 25 22 21 19 14 9 6 5 5 4 3 3 5 5 5 6 6 7 7 6 4
57 62 63 61 64 69 70 66 59 51 45 45 46 44 41 39 39 44 47 45 42 39 35 32 30 28 22 15 10 7 6 5 2 1 1 2 4 4 3 4 5 5 4
58 60 60 59 63 68 68 64 56 49 44 43 43 43 41 37 37 42 46 45 45 47 45 39 36 32 24 16 9 6 6 5 3 1 0 1 2 3 4 5 5 4 3
56 56 54 55 59 63 63 60 54 47 41 37 36 36 35 34 34 38 41 41 45 50 50 44 36 28 19 11 5 3 4 5 4 3 2 2 2 2 3 5 6 5 4
51 51 50 50 52 56 59 56 48 40 32 28 26 26 28 29 31 32 34 36 41 45 43 37 29 20 13 8 3 2 3 5 6 6 5 5 3 2 2 3 5 5 4
45 46 46 46 46 47 49 48 41 31 25 21 19 19 22 25 25 24 25 29 33 33 29 25 20 13 7 5 4 3 4 6 5 4 5 4 3 2 2 1 2 2 2
39 40 41 42 42 39 39 39 33 25 20 17 15 16 16 17 17 15 16 19 21 21 18 15 12 8 4 2 3 4 4 5 3 1 1 1 1 1 1 0 0 0 0
34 35 38 41 40 35 33 32 28 21 17 14 12 11 10 10 10 11 11 12 12 11 10 7 5 3 1 1 1 1 2 2 1 0 0 0 0 0 1 0 0 0 0
28 30 35 39 38 33 30 28 23 17 13 11 9 7 6 6 6 7 7 8 7 6 5 3 1 1 0 0 0 0 0 0 0 0 0 0 0 0 0 0 0 0 0
25 27 32 36 36 32 28 25 20 14 11 9 7 6 4 3 3 3 4 4 4 3 3 2 1 0 0 0 0 0 0 0 0 0 0 0 0 0 0 0 0 0 0

GEFSSE_con_probscp_102.txt.gz
Probability
60 60 62 52 31 13 5 2 1 0 0 0 0 0 0 1 1 2 4 3 2 1 0 0 0 0 0 0 0 0 0 0 0 0 0 0 0 0 0 0 0 0 0
68 67 67 59 38 19 9 5 3 1 1 1 0 0 0 1 1 2 3 2 1 0 0 0 0 0 0 0 0 0 0 0 0 0 0 0 0 0 0 0 0 0 0
75 72 73 68 50 30 17 12 8 3 2 2 2 2 2 2 1 1 1 1 0 0 0 0 0 0 0 0 0 0 0 0 0 0 0 0 0 0 0 0 0 0 0
76 72 74 74 62 44 31 24 17 9 5 5 6 7 6 5 3 2 2 2 1 0 0 0 0 0 0 0 0 0 0 0 0 0 0 0 0 0 0 0 0 0 0
74 71 72 75 68 56 47 39 27 16 11 11 12 14 12 9 6 4 3 2 1 0 0 0 0 0 0 0 0 0 0 0 0 0 0 0 0 0 0 0 0 0 0
68 66 70 73 70 64 59 52 39 27 23 22 23 23 20 14 10 7 5 4 1 0 0 0 0 0 0 0 0 0 0 0 0 0 0 1 2 1 0 0 0 0 0
60 63 67 70 71 69 66 60 52 46 43 40 38 36 32 24 16 10 7 5 3 1 0 0 0 0 0 0 0 0 0 0 0 0 0 1 2 2 1 0 0 0 0
58 63 64 65 68 69 70 68 66 65 63 59 55 50 42 32 21 12 8 6 4 2 0 0 0 0 0 0 0 0 0 0 0 0 0 1 1 2 1 0 0 0 0
58 61 58 57 61 64 69 71 71 70 69 68 63 54 42 30 20 14 10 7 5 3 1 0 0 0 0 0 0 0 0 0 0 0 0 0 2 3 3 1 0 0 0
59 57 51 50 54 56 60 65 66 65 64 64 59 49 35 22 16 13 11 8 6 3 1 0 0 0 0 0 0 0 0 0 0 0 0 1 3 5 4 2 1 0 0
58 53 46 45 46 42 47 57 58 55 55 54 48 40 30 20 14 11 12 13 9 4 2 1 1 1 0 0 0 0 0 0 0 0 0 2 3 4 4 2 1 0 0
57 52 47 46 41 34 44 58 55 47 45 42 38 35 29 23 17 15 20 23 16 8 4 2 2 2 0 0 0 0 0 0 0 0 2 3 4 3 2 1 0 0 1
63 58 54 52 44 40 54 64 57 49 46 40 36 36 31 26 24 25 31 31 22 13 8 7 4 1 0 0 0 0 1 1 1 2 4 7 8 7 3 1 1 2 3
68 64 61 59 52 53 64 68 62 58 54 47 44 41 32 27 29 32 33 29 21 14 12 11 5 1 0 0 1 2 2 3 4 5 7 12 16 14 8 4 4 5 5
66 63 63 63 61 62 69 71 67 65 61 56 53 43 31 28 31 32 29 22 16 14 14 13 11 8 7 7 8 9 9 10 11 9 9 15 19 18 13 9 7 6 5
64 64 64 65 66 70 74 74 72 70 66 62 55 42 30 29 32 33 29 22 19 21 23 23 24 26 24 22 21 21 19 19 17 12 8 10 13 15 14 12 10 7 5
68 69 69 67 68 73 77 77 74 71 66 61 53 41 32 31 36 36 33 29 28 33 39 40 41 42 41 36 32 30 28 25 21 15 9 6 6 9 12 13 11 8 7
70 73 73 70 69 72 76 75 70 66 62 55 47 41 36 35 38 38 37 35 35 40 45 46 47 49 48 43 37 35 34 31 25 18 13 9 7 7 9 10 10 9 8
68 70 72 71 69 70 71 69 64 61 56 49 42 39 39 39 37 36 36 37 38 41 44 44 47 50 46 38 32 31 33 32 27 21 17 14 11 10 8 7 8 8 7
66 66 66 68 67 65 64 62 59 54 48 42 36 34 37 39 36 34 34 36 39 43 44 43 44 44 37 26 18 17 21 23 22 20 18 15 12 8 6 6 6 7 6
62 62 62 62 61 59 58 58 54 47 39 33 28 27 30 34 34 33 35 38 41 44 42 39 36 32 25 17 9 6 7 10 12 13 13 11 7 4 3 4 5 4 4
56 57 57 56 53 53 54 53 49 40 31 24 21 21 22 24 27 31 35 38 41 42 39 34 29 23 16 13 9 5 3 3 4 5 5 4 2 1 1 1 2 2 2
47 49 50 50 49 49 50 48 43 35 26 19 17 16 16 16 20 25 30 33 35 36 34 29 23 17 14 12 9 6 4 2 1 1 1 0 0 0 0 0 0 1 1
38 40 44 46 47 46 46 45 41 32 24 19 16 13 12 12 14 18 22 26 27 25 22 18 14 12 12 10 8 5 3 1 0 0 0 0 0 0 0 0 0 0 0
30 33 38 42 44 44 43 42 36 28 21 19 15 12 9 8 9 11 15 18 18 15 12 9 8 9 9 8 6 4 2 0 0 0 0 0 0 0 0 0 0 0 0
26 29 33 38 42 43 41 38 30 22 18 16 14 11 9 7 6 7 9 12 12 10 8 7 7 8 7 7 6 4 1 0 0 0 0 0 0 0 0 0 0 0 0

GEFSSE_con_probscp_108.txt.gz
Probability
0 2 7 9 8 8 10 9 9 11 12 14 18 20 19 18 19 18 14 9 5 2 1 0 0 0 0 0 0 0 0 0 0 0 0 0 0 0 0 0 0 0 0
2 3 7 11 12 13 13 11 9 11 12 13 15 18 18 18 17 16 12 8 5 2 0 0 0 0 0 0 0 0 0 0 0 0 0 0 0 0 0 0 0 0 0
9 9 13 19 22 23 22 17 13 12 12 11 12 14 14 15 15 13 9 6 4 2 0 0 0 0 0 0 0 0 0 0 0 0 0 0 0 0 0 0 0 0 0
22 23 26 30 33 32 30 26 20 16 13 10 9 10 10 10 11 8 5 4 3 1 0 0 0 0 0 0 0 0 0 0 0 0 0 0 0 0 0 0 0 0 0
34 36 38 42 43 40 37 32 25 20 15 11 9 7 5 5 5 3 2 2 2 1 0 0 0 0 0 0 0 0 0 0 0 0 0 0 0 0 0 0 0 0 0
40 42 46 48 48 46 42 37 29 23 17 14 11 7 4 3 3 1 0 1 1 0 0 0 0 0 0 0 0 0 0 0 0 0 0 0 0 0 0 0 0 0 0
49 48 49 51 50 49 48 44 37 30 25 21 17 13 8 5 3 1 0 0 0 0 0 0 0 0 0 0 0 0 0 0 0 0 0 0 0 0 0 0 0 0 0
61 57 53 51 50 50 50 50 47 42 36 30 25 19 12 6 2 1 0 0 0 0 0 0 0 0 0 0 0 1 1 1 0 0 0 0 0 0 0 0 0 0 0
63 62 59 55 53 52 51 52 53 49 42 35 28 21 14 7 3 1 0 0 0 0 0 0 0 0 0 0 1 2 2 1 0 0 0 0 0 0 0 0 0 0 0
62 62 61 61 59 55 51 51 53 51 45 37 28 22 17 11 7 3 1 1 0 0 0 0 1 1 1 1 2 3 2 1 0 0 0 0 0 0 0 0 0 0 0
63 60 60 63 63 59 54 51 51 49 44 37 29 26 22 17 12 7 3 1 0 0 0 0 1 2 2 2 2 2 1 0 0 0 0 0 0 0 0 0 0 0 0
61 58 56 58 60 60 56 53 51 46 41 35 30 28 25 19 14 9 5 2 1 0 1 1 0 1 1 1 1 1 0 0 0 0 0 0 0 0 0 0 0 1 1
58 54 51 51 53 55 55 54 51 47 40 32 28 25 22 15 10 8 6 5 4 3 3 2 1 0 0 0 0 0 0 0 0 0 0 1 2 1 0 1 1 1 1
55 51 47 47 47 48 48 49 48 45 38 31 25 22 17 11 7 5 4 7 8 6 5 4 2 1 0 0 0 0 0 0 0 0 1 4 6 5 4 3 3 3 2
48 46 44 42 41 41 42 41 42 39 33 26 22 20 15 10 6 3 3 6 7 6 6 5 3 1 1 0 0 0 0 0 0 1 4 8 12 13 10 7 6 5 4
41 40 37 36 36 36 35 34 33 32 26 21 19 18 14 9 5 3 3 4 4 4 5 5 4 2 1 0 0 0 0 0 1 3 5 8 13 15 12 8 5 4 3
39 37 34 32 33 33 30 27 27 27 23 19 17 14 11 8 5 5 6 6 4 3 4 5 5 4 2 0 0 0 0 0 1 3 4 5 7 10 8 6 3 2 2
41 38 33 29 28 31 30 27 26 26 23 17 13 10 8 8 8 8 8 7 5 3 3 4 5 5 3 1 0 0 0 0 0 1 2 2 3 3 4 4 4 3 2
40 36 30 24 24 29 33 30 27 24 20 14 9 6 6 7 9 8 7 5 4 4 3 3 4 4 3 1 0 0 0 0 0 0 1 1 1 1 3 4 4 3 2
36 32 27 24 24 27 30 28 24 21 18 13 9 5 4 5 7 8 7 5 4 4 4 3 3 3 2 1 0 0 0 0 0 0 0 0 0 1 2 3 2 1 1
34 31 27 26 25 25 26 25 23 20 17 14 10 7 4 4 5 6 6 4 3 3 4 4 3 3 1 0 0 0 0 0 0 0 0 0 0 0 1 1 0 0 0
31 31 29 28 28 27 27 26 23 20 16 12 10 7 5 4 4 3 3 2 1 2 3 4 3 2 1 0 0 0 0 0 0 0 0 0 0 0 0 0 0 0 0
25 27 28 28 30 30 30 28 23 19 14 10 8 6 4 3 2 1 0 0 0 1 2 2 1 1 0 0 0 0 0 0 0 0 0 0 0 0 0 0 0 0 0
18 20 22 23 25 27 28 26 21 16 12 8 7 6 4 2 1 0 0 0 1 1 2 1 0 0 0 0 0 0 0 0 0 0 0 0 0 0 0 0 0 0 0
13 15 17 18 19 20 21 19 16 12 9 7 6 6 4 1 0 0 0 0 1 2 2 1 0 0 0 0 0 0 0 0 0 0 0 0 0 0 0 0 0 0 0
12 14 16 16 16 15 15 14 11 9 7 7 6 5 3 1 0 0 0 0 1 2 2 1 0 0 0 0 0 0 0 0 0 0 0 0 0 0 0 0 0 0 0

GEFSSE_con_probscp_114.txt.gz
Probability
2 4 6 4 3 6 16 30 41 44 39 34 30 26 22 16 10 5 3 3 1 0 0 0 0 0 0 0 0 0 0 0 0 0 0 0 0 0 0 0 0 0 0
5 8 11 8 6 10 17 27 37 42 40 36 32 29 26 20 13 7 4 3 2 0 0 0 0 0 0 0 0 0 0 0 0 0 0 0 0 0 0 0 0 0 0
10 12 15 15 15 17 21 26 33 38 39 37 32 29 27 23 18 12 6 3 1 0 0 0 0 0 0 0 0 0 0 0 0 0 0 0 0 0 0 0 0 0 0
16 17 20 24 25 25 27 31 32 33 36 36 31 27 25 22 19 14 8 2 0 0 0 0 0 0 0 0 0 0 0 0 0 0 0 0 0 0 0 0 0 0 0
23 23 28 33 35 34 35 36 33 32 33 33 30 26 23 20 18 14 7 2 0 0 0 0 0 0 0 0 0 0 0 0 0 0 0 0 0 0 0 0 0 0 0
28 29 35 41 43 43 42 41 37 34 32 32 29 25 21 19 18 15 8 2 0 0 0 0 0 0 0 0 0 0 0 0 0 0 0 0 0 0 0 0 0 0 0
34 35 40 47 48 48 46 44 41 37 34 33 31 26 21 20 21 18 11 4 0 0 0 1 1 1 1 0 0 0 0 0 0 0 0 0 0 0 0 0 0 0 0
43 41 44 48 50 49 48 45 43 40 37 37 34 28 22 22 22 19 12 6 1 0 0 1 2 2 1 0 0 0 0 0 0 0 0 0 0 0 0 0 0 0 0
48 46 46 46 46 48 48 47 46 44 40 38 34 27 22 21 19 16 12 7 3 1 0 1 1 1 1 0 0 0 0 0 0 0 0 0 0 0 0 0 0 0 0
46 48 48 45 43 45 47 47 48 47 43 38 33 26 22 21 18 14 11 7 3 1 0 0 0 0 0 0 0 0 0 0 0 0 0 0 0 0 0 0 0 0 0
44 46 48 47 47 48 50 50 50 49 47 42 35 29 25 23 19 15 12 8 4 2 1 1 1 0 0 0 0 0 0 0 0 0 0 0 0 0 0 0 0 0 0
45 44 45 49 53 56 57 55 53 54 53 48 41 34 29 25 22 19 15 12 8 6 5 5 4 2 1 2 1 0 0 0 0 0 0 0 0 0 0 0 0 0 0
48 45 45 49 53 54 55 55 57 59 57 51 44 37 30 25 22 20 18 15 13 10 9 9 8 5 3 3 2 1 0 0 0 0 0 0 0 0 0 0 0 0 0
51 48 46 47 47 46 47 51 56 58 56 50 44 37 29 24 20 18 16 14 12 11 11 10 8 6 4 3 2 1 0 0 0 0 1 2 1 1 0 0 0 1 1
49 46 43 42 42 43 44 47 51 54 53 49 43 37 29 23 20 18 15 11 9 9 11 10 8 6 4 3 2 1 0 0 1 2 4 5 6 4 3 2 1 1 2
43 41 39 36 36 38 39 40 43 46 46 45 42 36 30 24 22 21 17 11 8 8 10 10 8 5 4 2 1 0 0 0 3 6 7 8 10 10 7 4 1 1 1
36 36 34 32 29 29 30 30 31 31 32 34 34 31 28 25 23 21 17 12 9 7 9 10 7 4 3 2 1 1 1 2 5 8 9 9 10 10 7 4 2 1 2
30 30 29 26 23 22 22 21 19 19 20 24 24 24 25 23 20 17 13 10 8 8 9 9 8 5 3 2 1 1 2 2 4 6 6 7 6 6 6 4 3 4 5
25 24 23 21 18 16 16 15 12 12 15 17 18 18 20 19 16 12 8 6 6 7 8 8 8 6 4 3 2 2 1 1 1 2 3 3 3 4 5 5 4 6 7
22 20 20 19 16 13 12 11 10 10 12 13 14 13 13 12 11 8 5 5 5 5 7 8 7 5 4 3 3 2 1 0 0 0 0 1 2 3 4 3 3 5 6
17 17 17 16 14 11 10 10 10 10 9 8 8 7 6 6 6 4 3 3 4 4 6 7 7 5 4 3 3 2 1 0 0 0 0 0 1 1 1 1 1 2 3
12 13 13 13 12 11 10 11 10 9 6 4 3 4 4 4 4 3 2 3 4 4 4 4 5 4 3 3 3 1 0 0 0 0 0 0 0 0 0 0 0 0 1
8 8 9 10 12 13 12 11 10 9 7 3 3 5 6 6 5 4 2 1 1 1 1 1 3 3 3 3 2 1 0 0 0 0 0 0 0 0 0 0 0 0 0
6 6 7 8 10 11 11 10 9 9 8 5 4 5 6 6 5 3 1 0 0 0 0 0 1 2 3 3 2 0 0 0 0 0 0 0 0 0 0 0 0 0 0
5 5 6 7 8 8 8 7 8 7 6 4 4 4 4 3 3 1 0 0 0 0 0 0 0 1 1 2 2 1 0 0 0 0 0 0 0 0 0 0 0 0 0
4 5 6 6 6 6 6 6 6 5 4 3 3 3 3 2 1 0 0 0 0 0 0 0 0 0 1 2 2 1 0 0 0 0 0 0 0 0 0 0 0 0 0

GEFSSE_con_probscp_120.txt.gz
Probability
2 2 2 1 1 1 3 5 9 12 10 8 6 4 3 2 1 0 0 0 0 0 0 0 0 0 0 0 0 0 0 0 0 0 0 0 0 0 0 0 0 0 0
3 3 3 2 2 2 4 7 12 15 14 14 12 9 8 6 3 1 1 1 1 0 0 0 0 0 0 0 0 0 0 0 0 0 0 0 0 0 0 0 0 0 0
3 3 3 3 3 4 8 13 19 22 22 21 20 17 15 12 8 4 3 2 2 1 0 0 0 0 0 0 0 0 0 0 0 0 0 0 0 0 0 0 0 0 0
2 1 2 3 5 7 13 21 27 30 30 28 26 23 20 17 14 10 7 5 3 1 0 0 0 0 0 0 0 0 0 0 0 0 0 0 0 0 0 0 0 0 0
1 1 3 4 7 13 22 30 34 37 38 36 34 29 24 22 19 16 11 7 4 1 0 0 0 0 0 0 0 0 0 0 0 0 0 0 0 0 0 0 0 0 0
0 1 3 6 11 20 29 36 39 40 43 45 43 37 30 27 24 20 16 11 5 2 0 0 0 0 0 0 0 0 0 0 0 0 0 0 0 0 0 0 0 0 0
3 4 5 6 12 21 30 36 40 42 45 48 48 43 38 33 28 23 19 15 9 4 1 1 1 1 1 1 0 0 0 0 0 0 0 0 0 0 0 0 0 0 0
7 8 8 7 9 16 25 33 39 42 44 46 46 45 42 36 29 23 19 16 13 8 4 1 1 2 2 1 0 0 0 0 0 0 0 0 0 0 0 0 0 0 0
8 10 10 8 8 11 18 27 34 37 38 40 41 39 36 31 24 18 16 14 13 9 5 2 1 1 1 1 0 0 0 0 0 0 0 0 0 0 0 0 0 0 0
9 10 10 9 7 7 11 18 25 30 33 35 33 30 25 19 13 11 11 13 12 8 4 3 3 2 2 2 1 0 0 0 0 0 0 0 0 0 0 0 0 0 0
12 11 10 10 6 4 8 14 18 23 27 27 24 22 17 10 7 9 14 16 12 7 4 4 4 2 2 2 1 0 0 0 0 0 1 2 1 0 0 0 0 0 0
18 16 15 15 10 8 15 23 22 22 25 22 19 20 19 15 11 14 22 21 12 7 6 5 4 2 1 1 0 0 0 0 0 0 2 4 2 0 0 0 0 0 0
26 23 23 24 19 18 26 33 32 33 35 30 28 31 33 31 23 23 29 27 17 12 11 10 7 4 3 1 0 0 0 0 1 1 2 4 2 0 1 0 0 0 0
32 29 28 31 32 33 38 42 42 44 45 44 44 45 45 42 34 34 38 36 28 23 22 20 14 10 6 2 0 0 0 0 1 2 2 3 2 2 1 1 0 0 0
34 32 32 36 42 47 48 48 46 48 49 51 53 51 47 44 41 44 49 48 40 34 33 29 22 17 12 6 1 0 0 0 1 1 2 3 5 5 4 4 3 2 1
34 34 35 39 46 50 49 47 45 46 48 50 51 49 44 41 43 46 50 51 47 43 40 34 27 23 19 10 4 1 1 2 2 1 3 6 8 8 8 8 7 5 3
28 30 31 35 41 44 44 43 41 42 43 43 42 40 38 38 41 44 42 44 48 49 47 41 35 31 24 16 9 7 7 8 7 6 8 12 12 11 12 11 9 7 5
21 23 24 27 35 39 41 42 41 39 38 37 35 32 31 33 38 41 39 40 45 49 50 47 44 38 29 20 18 17 16 15 13 12 13 16 17 19 20 16 13 11 9
19 20 20 24 31 36 38 40 40 39 37 36 34 30 27 27 31 36 38 40 43 46 47 46 46 42 32 23 20 20 19 17 16 14 14 16 20 25 24 19 16 16 14
18 18 19 21 26 31 33 34 34 33 34 35 34 30 26 24 25 28 33 38 40 41 42 43 43 41 34 25 17 15 15 14 15 15 14 17 19 20 18 17 19 19 17
13 15 17 18 21 24 28 30 30 29 30 30 30 28 25 24 23 24 28 33 35 35 37 40 41 38 33 26 18 13 11 10 11 14 15 16 15 13 12 14 18 19 17
9 11 13 14 16 19 23 27 28 27 25 24 25 25 24 24 25 25 26 28 27 28 31 35 36 33 28 25 21 14 7 6 8 10 11 11 10 9 10 11 12 12 11
9 10 9 9 11 14 18 21 22 21 19 19 21 23 23 23 24 25 24 22 20 21 24 26 27 26 22 22 21 14 7 6 7 7 7 7 6 7 7 7 6 5 5
12 11 9 7 9 13 17 18 17 15 14 17 19 19 18 18 18 18 17 16 14 14 16 18 19 19 17 17 18 15 11 9 8 6 5 5 5 5 6 6 4 4 4
11 10 9 8 10 15 18 20 19 16 16 19 19 16 12 12 12 11 11 10 10 10 11 12 13 13 12 14 15 14 12 9 7 5 3 3 4 4 4 3 3 4 5
9 9 9 9 11 15 18 20 21 20 19 21 20 14 10 9 9 9 8 9 9 9 9 9 9 10 10 11 12 12 10 8 6 4 2 2 2 2 2 1 2 4 4

GEFSSE_con_probscp_126.txt.gz
Probability
10 7 7 6 2 1 0 0 0 0 0 1 2 3 3 2 1 1 1 0 0 0 0 0 0 0 0 0 0 0 0 0 0 0 0 0 0 0 0 0 0 0 0
18 12 10 9 5 2 0 0 0 0 0 1 2 2 2 2 1 0 0 0 0 0 0 0 0 0 0 0 0 0 0 0 0 0 0 0 0 0 0 0 0 0 0
18 14 11 10 7 3 1 0 0 0 0 0 1 1 1 1 0 0 0 0 0 0 0 0 0 0 0 0 0 0 0 0 0 0 0 0 0 0 0 0 0 0 0
9 9 8 8 6 4 1 0 0 0 0 0 0 0 0 0 0 0 0 0 0 0 0 0 0 1 1 0 0 0 0 0 0 0 0 0 0 0 0 0 0 0 0
6 7 8 7 6 5 3 1 1 0 0 0 0 0 0 0 1 1 1 1 1 0 0 0 0 1 2 1 0 0 0 0 0 0 0 0 0 0 0 0 0 0 0
7 9 10 10 7 5 4 3 2 1 2 3 3 2 2 2 3 3 3 3 2 1 0 0 0 1 2 2 1 0 0 0 0 0 0 0 0 0 0 0 0 0 0
9 10 12 13 9 5 5 5 3 3 5 8 9 8 8 8 8 7 6 4 3 1 0 0 1 2 2 2 1 0 0 0 0 0 0 0 1 1 0 0 0 0 0
16 13 12 12 10 7 8 8 6 5 7 12 15 14 15 16 14 10 8 5 3 2 1 1 2 3 3 2 1 0 0 0 0 0 0 1 2 3 2 0 0 0 0
22 16 10 9 8 7 8 10 10 10 12 16 18 18 19 19 15 11 9 7 5 4 3 2 2 3 3 3 2 1 0 0 0 0 1 2 4 5 3 1 0 0 0
23 15 9 8 7 5 6 10 14 16 18 19 18 17 17 15 12 8 8 8 8 6 5 3 2 2 2 2 2 1 0 0 0 0 1 3 5 5 4 1 0 0 0
25 16 10 9 8 6 8 14 18 19 20 18 15 14 14 12 9 8 10 14 12 9 6 3 1 1 2 1 1 0 0 0 0 1 3 7 8 7 5 3 1 0 0
29 21 15 14 13 14 19 24 23 21 21 17 15 16 16 14 13 15 23 28 21 12 7 4 3 2 2 2 1 0 0 0 0 2 8 15 14 11 9 5 1 0 0
29 24 22 23 22 25 32 33 29 28 28 24 23 26 22 19 20 28 39 39 28 17 11 9 6 3 2 3 2 0 0 0 1 5 15 23 23 18 13 7 3 2 1
27 25 27 31 33 40 44 41 35 35 37 35 37 35 29 27 28 35 43 40 28 19 17 15 10 4 2 2 1 1 1 1 3 8 16 25 26 22 16 11 8 6 5
31 30 33 37 43 50 53 48 40 39 41 43 44 41 36 36 36 38 43 39 28 23 22 19 13 8 5 2 2 2 3 4 6 10 14 19 23 24 22 17 13 11 11
36 36 38 41 47 53 55 50 45 44 44 44 46 44 40 41 41 42 45 43 35 29 27 23 18 17 14 10 8 9 10 11 14 16 16 17 20 26 26 22 17 15 14
37 37 38 42 47 52 55 54 52 50 47 46 46 43 39 39 42 45 46 45 40 34 31 27 26 26 25 21 20 21 20 20 22 22 22 20 19 24 26 24 23 20 15
37 38 39 43 48 54 58 58 55 52 50 48 46 42 39 39 42 44 43 42 40 38 33 30 30 32 31 27 26 26 25 26 25 22 22 21 19 20 22 23 25 20 14
38 40 42 44 47 52 57 57 53 50 49 48 47 45 44 44 44 44 42 40 40 39 34 28 29 31 29 27 25 23 24 26 24 19 18 19 18 17 17 18 19 16 11
37 39 41 42 43 47 50 51 48 47 46 47 47 46 47 47 46 45 43 42 41 39 33 27 26 26 25 22 20 20 22 22 19 18 17 17 17 16 14 13 12 10 7
35 36 38 39 41 43 45 44 42 42 42 43 42 42 44 45 44 42 41 41 40 37 32 25 23 22 22 20 20 20 19 17 16 17 19 17 15 13 12 10 8 6 4
28 29 33 37 39 40 40 38 36 36 37 37 37 38 39 38 37 35 35 35 36 35 31 25 22 21 20 19 19 19 16 13 12 14 16 14 11 8 7 5 5 4 3
19 20 24 31 34 35 35 34 33 34 34 34 34 34 32 29 29 29 29 30 31 31 30 27 24 22 18 16 17 17 15 11 7 8 9 8 5 4 3 2 2 4 4
14 14 17 22 25 28 30 30 31 32 32 31 29 28 25 23 23 24 25 26 27 27 26 26 24 21 15 12 14 16 14 9 4 3 3 2 2 2 2 1 3 4 5
13 13 13 15 18 21 23 24 26 27 27 26 25 24 22 20 19 19 21 22 22 21 21 21 20 17 12 9 11 13 11 6 2 1 0 0 1 1 1 2 3 4 5
14 13 11 12 15 17 18 20 21 22 22 22 22 22 21 19 18 17 18 18 17 16 16 17 16 14 10 8 8 11 9 5 1 0 0 0 0 0 1 2 3 4 4

GEFSSE_con_probscp_132.txt.gz
Probability
0 2 2 1 1 1 1 2 2 2 2 2 1 0 0 0 1 1 1 0 0 0 0 0 0 0 0 0 0 0 0 0 0 0 0 0 0 0 0 0 0 0 0
3 4 5 4 3 3 2 2 3 3 3 2 1 0 0 1 2 2 2 1 0 0 0 0 0 0 0 0 0 0 0 0 0 0 0 0 0 0 0 0 0 0 0
11 10 9 9 8 6 4 3 3 4 4 2 1 0 0 1 2 3 3 2 1 0 0 0 0 0 0 0 0 0 0 0 0 0 0 0 0 0 0 0 0 0 0
22 16 14 16 14 9 6 4 2 2 3 3 2 1 0 0 1 2 2 2 1 0 0 0 0 0 0 0 0 0 0 0 0 0 0 0 0 0 0 0 0 0 0
32 25 21 23 21 15 9 5 2 0 1 2 2 1 0 0 1 1 1 1 0 0 0 0 0 0 0 0 0 0 0 0 0 0 0 0 0 0 0 0 0 0 0
39 32 26 28 28 21 13 7 4 1 0 1 1 1 0 0 1 0 0 0 0 1 1 2 1 0 0 0 0 0 0 0 0 0 0 0 0 0 0 0 0 0 0
44 36 31 31 30 25 18 11 7 4 1 0 0 0 0 1 1 1 1 1 2 3 3 3 2 1 0 0 0 0 0 0 0 0 0 0 0 0 0 0 0 0 0
44 39 32 29 27 25 22 18 11 6 4 2 1 1 1 2 2 2 3 4 6 6 5 3 3 1 1 1 0 0 0 0 0 0 0 0 0 0 0 1 1 0 0
44 39 32 27 23 22 21 18 13 9 7 5 3 2 3 3 4 4 5 7 9 9 6 4 3 3 3 2 1 0 0 0 0 0 0 0 0 0 1 2 2 1 0
38 36 31 26 22 19 17 15 13 12 10 8 5 4 3 3 4 4 5 7 8 7 4 3 4 5 4 3 2 1 0 0 0 0 0 0 0 0 1 3 3 1 0
27 28 27 24 21 18 16 14 14 14 12 9 7 5 3 2 2 4 5 5 6 5 2 2 4 6 5 4 3 2 1 0 0 0 0 0 1 1 1 3 3 2 1
17 18 19 19 17 17 17 17 16 14 12 9 8 6 4 3 2 2 4 4 4 3 1 1 3 4 4 4 3 3 2 1 0 0 1 2 4 3 2 3 3 2 1
11 11 12 13 13 14 16 17 15 12 9 7 6 6 4 3 2 2 3 4 4 4 3 3 3 3 3 3 3 2 2 2 1 0 2 7 9 7 5 4 4 2 1
8 8 8 9 9 9 11 12 11 8 7 6 5 4 3 3 3 3 2 4 7 8 7 5 4 4 4 3 2 1 1 1 1 1 4 10 13 11 8 7 7 5 3
7 7 8 8 8 7 8 8 6 5 5 5 4 3 4 3 4 4 3 4 7 9 8 6 4 4 5 4 2 0 0 1 1 1 4 9 12 12 10 9 9 8 6
6 7 9 9 8 8 7 6 5 6 6 5 3 3 5 5 4 4 3 3 4 4 4 4 3 3 4 4 2 1 0 1 1 1 3 6 8 10 10 10 11 10 9
6 7 7 7 8 9 8 7 8 9 8 6 4 4 5 6 6 5 4 2 2 1 2 2 3 3 2 2 2 1 1 1 1 1 2 3 4 6 8 10 12 13 11
8 7 6 6 8 9 10 11 13 13 11 8 7 6 6 7 8 9 8 4 2 2 3 3 4 3 2 1 1 1 2 2 1 1 2 2 1 2 5 8 13 15 14
10 8 7 7 8 11 12 14 15 14 11 9 7 6 6 6 8 11 11 8 6 5 6 6 4 3 3 2 1 0 1 2 2 1 1 1 0 1 3 5 10 13 11
10 9 8 7 8 11 14 15 14 12 8 6 6 5 4 4 7 10 11 10 9 8 8 7 4 3 3 3 1 0 0 1 1 1 1 1 0 1 2 4 5 6 6
9 8 6 5 6 9 13 15 14 10 8 7 6 5 4 4 6 8 9 10 9 9 8 6 4 3 3 3 2 1 0 0 0 0 1 1 0 1 2 3 3 2 1
6 5 4 3 4 6 9 11 12 10 10 10 8 6 5 6 7 8 7 7 8 7 5 3 3 3 2 2 2 1 0 0 0 0 0 0 0 0 2 3 2 1 0
4 4 3 3 3 3 5 8 8 7 8 10 9 7 7 8 8 7 6 6 6 6 4 3 2 1 1 1 1 0 0 0 0 0 0 0 0 1 2 2 1 0 0
5 4 4 3 3 3 4 5 5 5 6 8 8 6 6 7 7 7 6 6 6 6 5 3 2 1 0 0 0 0 0 0 0 0 0 0 0 1 1 1 1 0 0
7 5 4 4 4 4 3 3 4 4 6 8 6 5 5 5 6 6 6 6 6 6 5 3 1 0 0 0 0 0 0 0 0 0 0 0 0 0 0 1 1 0 0
8 6 5 4 4 4 4 3 3 4 5 7 6 5 5 6 6 6 6 6 5 4 4 3 2 1 0 0 0 0 0 0 0 0 0 0 0 0 0 0 1 0 0

GEFSSE_con_probscp_138.txt.gz
Probability
0 0 0 0 0 1 2 5 7 5 2 1 1 2 4 4 2 1 0 0 0 0 0 0 0 0 0 0 0 0 0 0 0 0 0 0 0 0 0 0 0 0 0
1 0 0 0 1 3 5 7 8 6 3 2 2 2 3 4 4 2 1 0 0 0 0 0 0 0 0 0 0 0 0 0 0 0 0 0 0 0 0 0 0 0 0
4 2 1 1 3 6 9 10 10 7 4 3 2 1 1 3 3 2 1 0 0 0 0 0 0 0 0 0 0 0 0 0 0 0 0 0 0 0 0 0 0 0 0
11 7 5 6 8 11 13 12 10 7 4 2 1 1 1 2 1 1 1 0 0 0 0 0 0 0 0 0 0 0 0 0 0 0 0 0 0 0 0 0 0 0 0
18 15 13 14 15 16 16 15 12 8 5 3 2 3 4 4 3 2 2 1 0 1 1 0 0 0 0 0 0 0 0 0 0 0 0 0 0 0 0 0 0 0 0
27 24 23 23 24 23 22 19 14 10 7 6 6 5 6 6 6 5 5 3 2 2 2 2 1 2 2 1 1 1 0 0 0 0 0 0 0 0 0 0 0 0 0
37 34 33 34 32 30 29 24 18 13 11 12 10 8 7 7 7 8 8 7 5 5 4 4 4 4 4 3 3 2 2 0 0 0 0 0 0 0 0 0 0 0 0
46 42 40 40 38 36 34 31 25 19 16 16 15 12 8 7 7 8 8 10 9 7 6 5 4 4 4 4 3 4 3 1 0 0 0 0 0 0 0 0 0 0 0
47 44 42 41 40 39 37 36 32 25 19 18 17 14 10 8 6 6 8 11 10 8 6 5 4 4 4 4 3 3 2 1 0 0 0 0 0 0 0 0 0 0 0
41 40 38 38 39 39 38 37 34 28 22 19 17 15 12 9 7 6 7 9 9 8 7 6 6 6 6 5 4 2 1 1 1 0 0 0 0 0 0 1 1 1 0
36 34 32 31 34 36 34 32 29 26 22 17 14 12 10 8 6 5 5 6 7 7 8 8 8 8 6 5 4 2 2 3 2 1 1 0 0 0 0 1 2 1 0
30 28 25 24 27 29 27 25 22 18 15 12 9 7 6 5 4 3 4 5 4 5 6 7 7 6 4 3 3 3 4 4 3 2 1 0 0 0 1 1 2 2 1
23 22 20 18 19 20 19 18 17 15 12 9 6 4 4 4 3 2 3 3 2 2 4 6 5 3 1 0 1 2 3 4 3 2 1 0 0 1 2 2 3 3 2
17 16 15 13 12 12 12 12 13 13 12 11 7 4 3 3 1 1 1 1 1 2 3 5 4 2 0 0 0 0 1 2 2 1 1 0 0 1 2 2 2 3 4
13 11 9 9 9 9 9 8 8 9 10 10 7 4 1 1 0 0 0 0 1 2 3 4 5 3 1 1 0 0 0 1 1 0 0 0 0 1 1 1 2 4 5
10 6 5 6 6 8 9 8 6 5 6 7 6 3 0 0 0 0 0 0 0 1 1 3 4 4 2 2 1 0 0 0 0 0 1 1 1 2 3 4 4 4 5
8 5 3 3 4 6 8 8 7 5 4 4 3 1 0 0 0 0 0 0 0 0 0 1 1 1 2 2 2 1 0 0 0 0 1 2 2 3 6 7 7 6 5
5 4 4 2 2 3 6 7 6 5 4 3 2 1 0 0 0 0 0 0 0 0 0 0 0 0 1 2 2 1 0 0 0 1 2 2 1 2 5 7 8 7 6
4 4 3 2 1 1 2 4 5 4 3 3 3 1 0 0 0 0 0 0 0 0 0 1 1 1 0 1 1 0 0 0 0 1 2 1 0 1 2 4 6 7 7
2 3 3 2 0 0 1 2 3 3 3 3 2 1 0 0 0 0 0 0 0 0 0 1 1 1 0 1 1 0 0 0 0 1 1 0 0 0 1 3 5 7 7
1 1 2 1 0 1 1 2 2 1 1 2 1 1 0 0 0 0 0 0 0 0 0 1 1 0 1 2 2 1 1 0 0 0 0 0 0 1 3 4 5 6 6
0 0 0 0 0 1 2 1 1 0 0 0 0 0 0 0 0 0 0 0 0 0 0 0 0 0 1 2 2 2 2 1 0 0 0 0 0 2 4 5 4 4 5
1 0 0 0 0 1 1 1 1 0 0 0 1 1 1 0 0 0 1 1 1 1 1 0 0 0 0 1 1 2 3 2 1 0 0 0 0 1 3 3 3 3 4
2 1 1 1 0 1 1 1 1 1 0 1 2 2 1 1 1 1 2 2 2 2 1 0 0 0 0 0 0 1 2 2 1 0 0 0 0 0 1 2 2 3 4
3 3 2 2 2 2 2 2 2 1 1 2 3 3 3 2 2 2 1 1 2 3 2 0 0 0 0 0 0 0 1 1 0 0 0 0 0 0 0 1 2 3 3
5 4 3 3 3 3 3 3 1 1 2 3 3 3 3 3 2 1 0 0 1 2 2 1 0 0 0 0 0 0 0 0 0 0 0 0 0 0 0 0 1 3 3

GEFSSE_con_probscp_144.txt.gz
Probability
0 0 0 0 0 0 1 3 3 3 2 2 1 0 0 0 0 0 0 0 0 0 0 0 0 0 0 0 0 0 0 0 0 0 0 0 0 0 0 0 0 0 0
1 0 0 0 0 1 4 5 6 6 6 4 2 1 0 0 0 0 0 0 0 0 0 0 0 0 0 0 0 0 0 0 0 0 0 0 0 0 0 0 0 0 0
2 1 0 0 1 3 8 11 12 12 10 7 4 2 1 0 0 0 0 0 0 0 0 0 0 0 0 0 0 0 0 0 0 0 0 0 0 0 0 0 0 0 0
2 1 0 1 2 5 10 17 20 17 13 10 5 2 1 0 0 0 0 0 0 0 0 0 0 0 0 0 0 0 0 0 0 0 0 0 0 0 0 0 0 0 0
1 1 1 1 3 8 14 21 23 20 16 12 7 2 1 0 0 0 1 1 0 0 0 0 0 0 0 0 0 0 0 0 0 0 0 0 0 0 0 0 0 0 0
2 2 1 3 7 12 18 22 22 18 14 12 8 4 2 1 1 2 2 2 1 0 0 0 0 0 0 0 0 0 0 0 0 0 0 0 0 0 0 0 0 0 0
6 5 4 5 10 16 19 22 22 18 14 11 9 7 5 4 4 5 5 3 1 0 0 0 0 1 1 1 0 0 0 0 0 0 0 0 0 0 0 0 0 0 0
9 9 8 8 12 18 21 23 24 22 17 14 13 11 9 7 6 7 7 5 3 2 1 1 0 1 1 1 0 1 1 0 0 0 0 0 1 1 0 0 0 0 0
11 11 10 8 10 15 21 26 28 26 21 19 18 14 12 9 7 7 7 6 4 3 3 2 1 1 1 1 1 1 2 1 0 0 0 1 2 2 1 0 0 0 0
14 13 12 10 9 10 15 23 26 24 20 18 17 14 11 8 7 6 6 6 5 4 4 3 3 3 3 2 1 2 2 1 0 0 0 1 2 2 1 0 0 0 0
18 16 13 13 13 10 12 19 22 20 17 15 13 11 7 7 7 6 7 6 4 3 4 3 3 4 4 3 3 2 1 1 0 0 1 2 3 2 1 0 0 0 0
19 16 14 15 15 14 16 21 23 21 17 14 12 10 7 7 8 8 9 7 3 2 2 2 2 3 3 3 3 3 1 1 1 0 2 6 5 2 0 0 0 0 1
19 16 15 16 16 16 19 23 24 22 19 16 13 10 9 10 10 9 9 7 3 2 2 3 3 3 3 4 3 3 3 2 2 2 4 8 7 3 1 0 0 2 3
17 15 15 17 18 18 19 19 19 20 20 18 15 10 9 10 10 10 10 9 7 5 5 6 5 6 6 5 4 3 3 3 4 4 6 7 7 4 1 0 2 4 5
13 12 12 15 18 19 18 17 16 18 20 19 16 12 12 13 12 10 11 11 9 7 7 8 9 9 9 7 5 4 4 4 5 6 8 9 8 5 3 2 4 6 6
10 11 12 14 16 17 17 17 16 16 18 17 16 17 19 18 15 12 11 10 8 6 6 8 8 9 10 9 8 7 6 6 6 8 9 10 10 8 6 5 7 7 7
10 11 13 13 12 13 14 15 15 15 16 16 17 20 22 19 15 13 11 9 8 7 7 8 8 9 9 9 10 11 11 10 9 8 8 9 9 8 7 7 9 11 11
10 10 11 11 10 10 12 14 14 15 16 15 15 17 17 14 11 10 9 8 10 12 11 11 10 8 7 8 10 11 12 13 12 9 8 9 10 9 9 10 13 15 16
9 9 9 10 10 10 12 13 13 14 14 13 12 12 12 10 8 7 6 7 10 12 13 12 10 7 6 6 7 8 9 11 12 10 9 10 12 12 10 12 16 17 16
9 8 9 10 11 11 12 13 13 12 11 10 9 8 8 8 7 6 5 7 9 10 10 9 7 6 5 3 3 4 5 8 10 10 10 12 13 12 10 12 15 15 14
11 10 9 9 10 10 11 13 13 11 9 7 7 7 7 7 7 6 5 7 8 9 10 8 7 6 4 3 3 3 4 6 7 8 10 12 11 10 10 11 13 14 13
12 11 10 10 10 10 9 10 11 9 7 6 6 8 8 8 8 7 7 7 7 8 10 8 6 6 5 4 5 5 6 6 7 7 10 11 10 10 11 12 13 15 16
11 11 11 12 11 9 8 7 8 8 7 6 8 10 10 9 8 7 7 7 7 8 9 8 6 5 5 5 5 7 9 9 8 9 10 10 9 10 12 13 14 16 18
9 9 10 11 10 8 6 5 6 6 6 6 8 9 8 8 8 8 7 8 9 9 9 8 7 5 5 5 5 7 9 10 10 10 10 9 8 9 11 13 14 15 16
9 8 9 9 8 6 5 5 5 4 4 4 5 4 4 6 7 7 6 7 8 9 9 10 9 6 5 5 6 6 7 8 9 9 8 7 6 6 8 10 11 12 12
9 8 9 8 6 4 4 5 5 4 3 3 2 1 1 3 5 5 5 6 7 8 9 10 9 6 5 5 5 5 4 4 7 7 7 6 6 6 6 7 8 9 10

GEFSSE_con_probscp_150.txt.gz
Probability
11 7 4 2 0 0 0 0 0 0 0 0 0 0 0 0 0 0 0 0 0 0 0 0 0 0 0 0 0 0 0 0 0 0 0 0 0 0 0 0 0 0 0
11 8 6 4 2 1 1 1 1 1 1 0 0 0 0 0 0 0 0 0 0 0 0 0 0 0 0 0 0 0 0 0 0 0 0 0 0 0 0 0 0 0 0
9 8 9 7 5 3 2 2 2 2 1 0 0 0 0 0 0 0 0 0 0 0 0 0 0 0 0 0 0 0 0 0 0 0 0 0 0 0 0 0 0 0 0
7 9 11 11 8 6 4 3 2 1 1 0 0 0 0 0 0 0 0 0 0 0 0 0 0 0 0 0 0 0 0 0 0 0 0 0 0 0 0 0 0 0 0
9 11 15 16 13 9 7 5 3 3 2 2 1 0 0 0 0 0 0 0 0 0 0 0 0 0 0 0 0 0 0 0 0 0 0 0 1 0 0 0 0 0 0
11 12 17 21 20 16 13 10 7 7 6 4 3 2 1 1 1 1 1 1 1 0 0 0 0 0 0 0 0 0 0 0 0 0 0 0 1 1 0 0 0 0 0
15 14 19 25 27 23 19 13 10 8 7 6 4 4 5 4 3 3 3 2 1 0 0 1 1 1 1 2 1 1 1 0 0 0 0 0 1 1 1 0 0 0 0
19 19 21 25 27 26 22 14 11 9 8 7 5 5 7 7 6 5 3 3 2 0 1 2 2 2 3 3 3 2 2 1 0 0 0 2 4 4 2 1 1 0 0
19 18 18 18 20 22 22 18 15 14 12 10 6 4 5 7 6 4 2 2 2 1 1 2 3 3 3 3 3 3 3 1 1 1 1 6 11 10 5 3 2 1 0
18 18 17 16 15 16 19 20 19 17 15 11 7 4 4 5 6 4 3 4 3 1 1 2 3 3 3 3 3 3 3 2 1 1 2 10 19 17 8 4 3 2 1
24 22 21 20 17 15 18 20 18 15 13 11 9 6 5 6 7 6 7 8 5 1 0 1 1 2 3 3 3 4 3 1 0 1 5 14 24 22 13 7 5 4 4
28 26 26 27 24 21 22 23 19 15 15 14 14 12 8 7 9 10 13 13 7 3 1 1 1 2 3 3 4 5 4 1 0 1 8 19 25 23 16 11 8 7 6
26 26 29 31 31 31 30 27 23 22 22 21 20 19 15 12 11 14 17 14 9 5 3 3 4 3 3 3 5 8 6 3 1 2 11 23 27 23 19 16 13 11 10
26 26 28 32 37 40 39 34 31 30 28 24 23 22 19 15 14 16 17 14 10 6 5 5 6 5 5 5 6 8 9 7 4 4 13 24 28 24 22 20 17 14 12
27 28 30 34 38 41 42 40 36 33 28 23 21 21 17 14 14 18 20 17 12 10 10 10 9 9 9 7 5 6 9 11 10 10 16 24 27 25 24 23 21 18 15
32 32 33 34 36 38 38 36 32 28 25 21 18 17 14 13 17 22 24 22 18 16 16 14 12 12 11 9 6 6 9 13 15 18 22 25 26 25 25 25 24 21 18
39 37 35 33 35 37 35 29 24 22 21 21 20 18 16 15 18 22 24 22 20 20 19 15 13 12 10 9 9 9 9 13 18 22 25 26 25 26 28 27 25 23 21
42 42 39 36 37 37 34 27 22 20 22 23 22 21 19 16 14 16 19 20 20 20 18 15 14 13 11 11 11 9 9 12 15 19 22 23 23 25 29 28 23 20 20
42 43 41 38 37 36 33 29 25 24 25 23 20 19 19 15 10 10 13 16 19 20 17 15 16 15 12 11 9 7 5 8 10 12 15 18 20 24 27 25 21 17 15
37 37 37 35 33 33 31 30 28 26 25 21 17 18 19 16 10 8 10 12 17 20 18 14 14 14 11 9 6 4 3 4 7 9 10 13 16 19 20 20 19 16 12
30 29 28 27 28 29 28 27 25 24 22 18 16 18 19 17 13 11 11 12 16 18 18 15 12 11 10 7 6 4 3 5 7 8 9 10 12 15 15 16 17 16 14
24 23 21 21 22 25 24 22 20 19 17 16 16 16 17 16 15 13 14 16 17 17 17 15 12 10 7 6 6 5 4 6 8 8 8 9 11 14 15 14 14 15 14
21 20 20 19 19 20 20 18 16 15 14 13 14 14 14 13 14 14 15 17 18 17 16 13 10 7 5 4 4 5 4 5 7 7 7 7 9 12 12 11 10 11 11
19 20 20 19 17 17 16 15 14 13 11 10 11 12 11 11 12 14 14 15 16 15 14 12 8 6 4 3 4 4 4 5 6 5 5 5 7 9 9 7 7 7 7
18 18 18 17 16 15 14 13 12 11 9 8 8 9 10 10 11 11 12 12 12 12 11 10 8 6 4 3 3 3 2 3 4 3 3 4 5 7 7 6 6 6 5
17 17 16 16 16 14 13 12 11 10 8 7 7 9 10 10 10 9 9 9 9 9 9 9 8 6 4 3 2 1 1 2 2 1 2 3 5 6 6 6 6 7 8

GEFSSE_con_probscp_156.txt.gz
Probability
1 1 2 2 1 2 3 2 1 1 1 0 0 1 2 3 3 4 5 4 2 0 0 0 0 0 0 0 0 0 0 0 0 0 0 0 0 0 0 0 0 0 0
2 2 3 3 2 3 4 4 3 3 2 1 0 2 3 4 4 4 4 4 1 0 0 0 0 0 0 0 0 0 0 0 0 0 0 0 0 0 0 0 0 0 0
5 4 4 4 3 3 4 5 5 4 3 1 2 4 5 6 6 5 4 3 1 0 0 0 0 0 0 0 0 0 0 0 0 0 0 0 0 0 0 0 0 0 0
7 6 6 7 6 4 4 5 6 5 4 4 4 6 6 7 6 6 5 3 2 1 0 0 0 0 0 0 0 0 0 0 0 0 0 0 0 0 0 0 0 0 0
9 8 9 11 10 7 7 9 9 8 8 8 7 6 6 6 7 7 6 5 3 1 0 0 0 0 0 0 0 0 0 0 0 0 0 0 0 0 0 0 0 0 0
12 9 11 15 13 11 13 15 13 12 12 11 9 6 5 6 6 7 7 5 3 1 0 0 0 0 0 0 0 0 0 0 0 0 0 0 0 0 0 0 0 0 0
16 13 12 14 14 14 16 16 15 14 14 13 10 5 3 5 6 6 6 5 3 1 0 0 0 0 0 0 0 0 0 0 0 0 0 0 0 0 0 0 0 0 0
18 16 14 14 15 16 15 15 15 16 16 13 9 5 4 5 5 6 5 5 3 1 0 0 0 0 0 0 0 0 0 0 0 0 0 0 0 0 0 0 0 0 0
16 15 13 11 13 16 16 16 17 18 17 14 9 6 5 4 4 5 6 6 5 3 2 1 1 1 1 1 1 1 0 0 0 0 0 0 0 1 2 1 0 0 0
11 10 8 6 7 10 13 15 16 16 16 14 12 9 6 5 5 6 7 6 5 4 3 2 2 2 2 2 2 2 1 0 0 0 0 1 1 3 6 5 2 1 1
8 6 3 1 2 5 8 10 11 10 11 12 12 11 9 7 6 6 6 6 4 3 2 3 3 3 2 2 3 3 2 0 0 1 1 2 4 7 10 9 6 5 4
11 8 4 2 2 4 6 7 5 5 6 7 9 10 10 8 6 4 4 5 3 2 1 2 2 1 1 1 1 2 1 1 1 1 1 3 6 9 11 11 11 10 9
15 12 8 4 3 4 5 5 4 3 3 4 6 8 7 5 5 4 3 3 2 1 0 1 1 0 0 0 0 0 1 3 2 1 1 3 6 9 10 11 13 13 13
18 15 11 6 4 4 4 4 4 4 3 2 3 4 3 2 3 3 3 3 2 1 0 0 0 0 0 0 0 0 1 2 2 1 1 2 5 7 8 9 12 14 14
20 18 12 7 5 4 4 4 4 4 3 1 1 1 1 0 1 3 3 3 2 1 0 0 0 0 0 0 0 0 0 1 1 2 1 1 3 5 6 6 9 12 13
22 19 13 8 6 6 6 4 3 3 2 1 0 0 0 0 1 2 2 1 1 1 0 0 0 0 0 0 0 0 0 0 1 2 1 0 1 3 4 5 7 9 10
20 16 13 10 8 7 5 3 1 1 1 1 0 0 1 1 1 1 2 1 0 0 0 0 0 0 0 0 0 0 0 0 0 1 1 0 0 2 4 6 6 7 7
15 12 11 11 8 5 3 1 0 0 0 0 0 1 2 3 2 2 1 0 0 0 1 1 1 0 0 0 0 0 0 0 0 0 0 0 0 1 3 5 5 5 5
11 10 11 11 7 4 2 1 0 0 0 1 1 1 3 4 4 2 1 1 1 1 1 2 1 0 0 0 0 0 0 0 0 0 0 0 0 0 1 2 3 3 2
9 11 13 11 7 5 3 2 1 1 1 1 2 3 4 4 3 2 1 2 2 1 1 2 1 0 0 0 0 0 0 0 0 0 0 0 0 0 0 0 1 1 1
11 14 14 12 9 8 7 5 3 2 1 1 2 4 4 4 3 3 2 2 2 1 1 1 1 0 0 0 0 0 0 0 0 0 0 0 0 0 0 0 0 0 0
14 15 15 12 11 11 10 9 6 3 2 2 3 4 4 4 5 5 3 1 1 2 2 1 1 0 0 0 0 0 0 0 0 0 0 0 0 0 0 0 0 0 0
15 15 14 12 12 12 12 10 8 5 5 4 4 3 3 4 6 6 3 2 2 2 2 2 2 1 0 0 0 0 0 0 0 0 0 0 0 0 0 0 0 0 0
14 14 13 11 11 12 11 10 9 7 6 6 4 3 4 5 6 6 4 3 2 2 1 1 2 2 1 1 0 0 0 0 0 0 0 0 0 0 0 0 0 0 0
13 13 12 11 11 10 10 10 9 8 7 6 4 4 5 6 6 5 4 3 1 1 0 0 1 2 2 1 0 0 0 0 0 0 0 0 0 0 0 0 0 0 0
12 12 13 12 10 10 10 10 9 8 7 6 5 5 6 6 5 4 4 2 0 0 0 0 1 2 2 1 0 0 0 0 0 0 0 0 0 0 0 0 0 0 0

GEFSSE_con_probscp_162.txt.gz
Probability
0 0 0 0 0 0 1 1 1 3 6 8 9 9 9 7 6 4 1 0 0 0 0 0 0 0 0 0 0 0 0 0 0 0 0 0 0 0 0 0 0 0 0
0 0 0 0 0 1 2 2 2 4 6 8 10 10 8 7 6 5 3 2 1 1 0 0 0 0 0 0 0 0 0 0 0 0 0 0 0 0 0 0 0 0 0
0 0 0 1 2 4 5 5 6 7 8 10 11 10 9 9 8 7 6 4 3 2 1 0 0 0 0 0 0 0 0 0 0 0 0 0 0 0 0 0 0 0 0
1 0 1 3 5 7 9 9 9 10 12 14 13 11 11 12 11 9 7 5 3 2 1 0 0 0 0 0 0 0 0 0 0 0 0 0 0 0 0 0 0 0 0
2 2 4 6 8 9 12 13 13 13 15 15 14 13 13 13 13 11 8 4 3 2 1 0 0 0 0 0 0 0 0 0 0 0 0 0 0 0 0 0 0 0 0
4 4 7 9 9 11 14 15 18 19 18 17 17 16 15 14 14 12 9 5 2 1 0 1 1 1 0 0 0 0 0 0 0 0 0 0 0 0 0 0 0 0 0
4 6 9 11 11 13 15 17 20 24 23 21 20 19 18 17 15 12 9 7 4 2 1 2 3 3 2 1 1 1 1 0 0 0 0 0 0 0 0 0 0 0 0
6 8 10 12 12 14 17 18 20 23 24 24 22 21 19 19 17 13 10 8 6 5 4 4 5 6 6 4 3 2 2 1 1 0 0 0 0 0 0 0 0 0 0
9 9 10 11 12 14 17 20 21 22 23 22 21 18 16 15 15 14 12 10 9 7 5 4 5 6 6 5 3 3 3 3 2 1 0 0 0 0 0 0 0 0 0
8 8 8 9 10 11 14 16 17 17 18 17 15 15 12 8 9 13 14 14 12 8 3 2 2 2 3 2 3 3 3 3 2 1 0 1 1 1 0 0 0 0 0
8 7 7 7 8 9 9 9 9 9 10 9 10 12 10 6 6 9 13 13 11 7 3 1 1 0 0 1 2 4 3 1 1 0 1 2 3 2 1 0 0 0 0
9 8 6 6 8 8 7 4 3 4 5 4 6 8 8 6 5 6 7 8 7 6 4 3 2 1 1 1 2 3 2 1 0 0 1 3 4 3 2 1 1 1 0
11 9 7 5 6 7 6 4 3 3 4 2 3 4 5 4 4 4 4 4 4 3 3 3 2 2 2 2 1 1 1 0 0 0 0 1 2 3 3 3 2 1 1
13 11 9 7 5 5 4 3 4 4 4 2 1 2 3 3 3 3 3 3 3 2 1 1 1 1 3 3 1 0 0 0 0 0 0 0 1 2 3 3 3 3 3
13 12 10 8 5 4 4 3 3 3 3 2 1 1 2 3 3 2 2 3 3 1 0 0 0 0 1 2 1 0 0 0 0 0 0 0 0 1 2 3 3 4 6
10 10 9 6 4 4 4 3 1 1 1 1 0 1 1 1 2 1 2 3 2 1 0 0 0 0 0 1 1 0 0 0 0 0 0 0 0 1 3 5 5 7 8
9 8 7 6 4 4 4 3 1 0 0 0 0 0 0 0 0 0 1 2 2 1 0 0 0 0 0 0 0 0 0 0 0 0 0 0 0 0 2 5 7 8 9
10 9 8 7 5 3 3 3 2 1 0 0 0 0 0 0 1 1 1 1 1 0 0 0 0 0 0 0 0 0 0 1 1 1 0 0 0 0 1 3 5 7 8
9 9 9 7 5 4 3 3 2 1 0 0 0 0 0 0 1 2 2 2 2 1 0 0 0 0 0 0 0 0 0 1 2 1 0 0 0 0 0 1 1 4 6
7 8 8 7 5 5 5 3 2 1 0 1 1 0 0 1 2 2 2 2 2 1 0 0 0 0 0 0 0 0 0 1 1 1 0 0 0 0 0 0 0 1 3
6 7 7 5 4 4 5 4 2 1 1 2 2 1 1 2 2 1 1 1 1 0 1 1 1 0 0 0 0 0 0 0 0 0 0 0 0 0 0 0 0 0 1
7 7 6 4 2 2 3 3 3 3 3 3 2 1 1 2 2 1 0 0 0 0 1 1 1 1 0 0 0 1 0 0 0 0 0 0 0 0 0 0 0 0 0
7 7 7 5 3 2 3 4 4 4 4 3 2 1 0 1 1 0 0 0 0 0 0 0 1 1 1 0 0 0 0 0 0 0 0 0 0 0 0 0 0 0 0
7 7 8 7 6 5 6 7 7 6 6 4 1 0 0 0 0 0 0 0 0 1 1 0 1 2 2 1 1 0 0 0 0 0 0 0 0 0 0 0 0 0 0
6 7 8 8 7 7 8 8 8 7 7 4 1 0 1 1 0 0 0 1 1 1 1 0 1 2 2 2 2 1 1 0 0 0 0 0 0 0 0 0 0 0 0
6 7 8 7 6 6 7 8 7 7 7 5 1 1 2 2 1 0 1 2 2 1 1 0 0 1 2 3 3 2 2 1 0 0 0 0 0 0 0 0 0 0 0

GEFSSE_con_probscp_168.txt.gz
Probability
0 0 0 0 0 0 0 1 2 5 6 5 5 4 1 0 1 1 1 0 0 0 0 0 0 0 0 0 0 0 0 0 0 0 0 0 0 0 0 0 0 0 0
0 0 0 0 0 0 1 2 4 6 8 8 6 4 2 1 1 1 0 0 0 0 0 0 0 0 0 0 0 0 0 0 0 0 0 0 0 0 0 0 0 0 0
0 0 0 0 0 1 3 6 8 10 11 11 8 5 3 1 1 0 0 0 0 0 0 0 0 0 0 0 0 0 0 0 0 0 0 0 0 0 0 0 0 0 0
0 0 0 0 1 3 7 11 13 14 14 13 11 8 5 2 1 0 0 0 0 0 0 0 0 0 0 0 0 0 0 0 0 0 0 0 0 0 0 0 0 0 0
1 0 0 0 1 4 8 13 16 16 14 13 12 10 7 4 2 1 1 1 1 0 0 1 1 0 0 0 0 0 0 0 0 0 0 0 0 0 0 0 0 0 0
2 1 0 0 0 3 7 11 15 16 15 13 11 9 7 5 3 3 2 2 2 1 1 2 2 1 1 1 1 0 0 0 0 0 0 0 0 1 0 0 0 0 0
2 1 1 0 1 2 5 9 13 16 18 16 13 9 6 4 3 3 3 3 3 3 3 2 2 2 2 2 2 1 1 0 0 0 0 0 2 3 1 0 0 0 0
3 2 1 1 2 3 5 9 13 16 18 18 14 9 5 4 3 3 4 4 4 3 2 1 1 1 1 2 2 2 1 1 0 0 0 1 4 5 3 1 1 1 1
3 3 2 3 3 4 5 7 10 12 13 13 11 7 4 4 4 4 5 4 3 2 1 0 0 0 0 1 1 1 1 1 0 0 1 4 7 6 3 2 2 3 3
4 4 3 4 4 4 3 4 5 6 7 7 6 4 3 3 4 5 5 5 4 2 1 0 0 0 0 0 0 0 0 0 1 2 4 7 9 7 4 2 3 4 3
9 6 3 3 4 4 3 2 3 3 3 3 3 3 3 3 3 4 6 6 4 2 1 1 0 0 0 0 0 0 0 1 2 4 6 10 10 7 4 3 3 3 4
15 11 6 4 6 7 6 7 7 5 2 2 2 3 4 5 5 5 6 7 4 1 1 1 0 0 0 1 1 0 0 1 3 5 8 11 10 7 5 5 4 4 4
19 16 12 10 12 12 11 11 11 8 5 5 5 6 7 8 9 8 8 8 6 4 2 2 1 1 1 3 2 1 1 2 3 6 9 10 7 4 5 4 3 3 4
22 20 17 15 16 17 16 15 14 11 9 9 10 10 11 11 11 12 12 11 9 7 5 3 3 2 2 3 3 3 3 3 4 7 8 6 2 2 3 3 1 2 3
22 21 18 16 18 21 22 20 16 13 12 12 12 13 13 12 12 13 15 14 10 6 5 5 4 4 3 3 3 3 3 4 5 6 6 3 0 0 2 2 1 1 3
17 16 15 16 19 23 24 22 18 15 14 13 13 13 13 13 14 15 16 14 9 6 5 4 5 6 6 6 5 3 3 4 4 4 3 2 1 2 4 5 3 3 3
15 14 14 16 19 22 22 20 16 15 13 12 12 12 13 14 15 16 14 12 9 8 6 4 5 8 9 8 6 4 4 4 4 3 2 2 3 5 6 5 4 4 4
17 17 17 15 17 21 22 19 16 13 11 10 11 12 12 13 14 14 13 11 10 8 5 4 4 6 8 7 6 5 5 6 5 4 3 3 5 5 4 3 2 2 3
20 20 18 15 16 19 20 18 15 12 10 10 11 12 12 13 13 12 11 10 9 7 4 4 4 6 7 6 4 4 5 5 5 5 4 5 5 5 3 2 1 1 2
20 20 18 16 15 15 14 14 13 11 10 11 11 12 13 12 11 9 7 7 7 6 4 3 5 6 5 5 4 4 4 4 5 5 4 4 4 3 2 2 2 2 2
21 20 18 16 13 11 11 11 12 11 10 10 11 12 11 10 9 7 5 5 5 6 4 4 6 6 5 5 6 5 4 4 5 4 2 2 2 2 2 2 3 3 4
22 19 17 15 12 10 11 12 12 11 10 10 11 11 9 8 8 7 5 5 5 5 5 6 8 8 6 7 7 7 5 5 4 2 1 0 1 2 2 3 3 4 4
19 17 14 13 12 12 12 11 10 10 10 11 12 11 9 7 7 7 5 5 5 5 6 7 9 9 9 8 9 8 7 6 4 2 1 1 1 2 3 3 3 3 2
15 13 10 9 10 11 12 11 9 9 10 11 13 12 10 8 6 5 4 4 4 5 5 6 7 7 8 8 9 9 8 6 4 2 1 1 1 2 2 2 2 1 0
10 9 8 7 7 8 10 11 12 11 11 12 13 12 10 8 6 4 3 3 3 3 3 4 5 5 6 7 8 9 8 7 5 3 2 1 0 1 1 1 0 0 0
9 7 7 7 5 5 8 12 14 13 12 13 14 12 11 9 7 5 3 2 2 2 1 3 4 4 5 7 8 8 8 7 6 4 2 1 0 0 0 0 0 0 0

GEFSSE_con_probscp_174.txt.gz
Probability
2 2 2 1 1 1 1 1 0 0 0 0 0 0 0 0 0 0 0 0 0 0 0 0 0 0 0 0 0 0 0 0 0 0 0 0 0 0 0 0 0 0 1
4 4 4 4 3 2 3 2 1 1 0 0 0 0 0 0 0 0 0 0 0 0 0 0 0 0 0 0 0 0 0 0 0 0 0 0 0 0 0 0 0 0 1
7 6 6 6 5 4 4 5 4 2 1 1 1 1 0 0 0 0 0 0 0 0 0 0 0 0 0 0 0 0 0 0 0 0 0 0 1 2 2 0 0 0 1
7 8 8 8 7 6 6 6 5 4 3 2 2 2 1 0 0 0 0 0 0 0 0 0 0 0 0 0 0 0 0 0 0 0 0 0 2 5 5 2 0 1 1
9 9 10 9 7 7 7 7 6 4 3 3 3 3 2 1 1 1 0 0 0 0 0 0 0 0 0 0 0 0 0 0 0 0 0 0 3 8 8 5 3 3 3
9 9 10 10 8 7 8 9 8 7 5 4 3 3 2 2 2 1 1 1 1 0 0 0 0 0 0 0 0 0 0 0 0 0 0 1 5 10 11 8 6 4 4
10 10 11 12 11 10 10 10 11 10 7 5 4 3 2 2 2 2 2 2 2 1 0 0 0 0 0 0 0 0 0 0 0 0 0 2 8 13 13 10 7 5 4
12 11 11 12 13 11 9 8 9 9 8 7 5 3 3 3 3 2 2 2 2 1 0 0 0 0 0 0 0 0 0 0 0 0 1 5 14 19 16 11 9 8 7
16 15 11 9 9 7 5 4 6 8 9 7 5 4 3 4 3 3 2 1 1 0 0 0 0 1 1 0 0 0 0 0 0 0 1 10 23 27 22 16 13 11 8
19 18 14 8 5 3 2 4 8 10 10 8 5 4 3 3 3 3 3 3 2 1 1 0 0 1 1 0 0 0 0 0 0 1 4 16 30 33 28 22 17 12 9
20 21 18 13 8 4 5 8 10 11 10 9 7 6 5 4 3 3 6 8 6 3 2 1 2 2 1 0 0 1 0 0 0 2 10 23 31 31 28 24 18 13 10
22 21 21 19 14 11 12 15 14 13 14 13 10 11 11 9 6 8 13 15 10 5 4 3 4 3 2 2 4 4 2 0 1 4 14 27 28 24 22 22 21 16 13
25 23 22 22 22 20 22 23 20 19 20 19 17 19 20 18 15 16 21 21 14 8 6 6 5 4 3 5 8 7 4 2 3 6 16 25 23 18 17 20 22 21 19
27 26 26 29 33 34 33 30 25 24 25 24 23 25 26 25 23 22 25 26 21 16 13 10 8 6 5 6 8 7 6 6 7 11 17 21 20 17 17 18 18 19 18
29 30 34 39 44 46 42 35 28 29 29 27 28 28 27 27 26 25 28 29 28 25 20 15 11 10 9 8 7 6 7 8 10 13 16 20 21 19 16 14 12 11 11
35 37 40 44 48 49 44 35 30 32 32 31 32 31 29 27 26 28 30 31 29 27 24 19 15 13 12 10 7 7 7 8 9 11 14 18 21 21 15 11 9 8 7
44 44 42 42 44 46 41 34 31 33 33 33 35 34 30 26 26 28 31 32 30 27 25 22 18 15 13 11 9 9 9 9 9 10 12 15 18 19 15 12 11 9 7
50 49 44 39 39 41 39 35 33 34 33 33 35 34 29 24 25 27 29 31 32 29 26 23 20 16 13 11 11 10 10 9 9 9 11 12 14 15 15 14 13 10 7
51 49 44 40 39 38 36 34 33 32 32 32 32 31 27 23 23 25 26 28 30 29 26 23 21 18 13 11 9 9 9 9 8 8 8 10 11 13 12 11 12 10 7
49 47 44 43 42 39 34 31 29 27 27 27 28 28 26 23 22 23 24 25 27 26 24 22 20 18 15 12 8 7 9 9 8 7 8 8 9 11 10 8 8 8 7
48 46 43 42 41 39 33 29 26 23 21 21 23 24 22 20 20 21 23 25 26 24 20 18 17 16 15 13 9 8 9 8 8 8 7 6 7 8 8 7 6 5 4
47 44 42 41 40 37 33 28 24 21 18 18 20 21 19 17 18 20 21 23 24 23 19 15 14 13 12 11 10 9 8 7 7 7 5 5 5 6 5 4 3 2 2
45 42 39 38 36 33 30 27 24 21 18 18 19 20 19 17 18 19 19 20 21 21 20 16 13 10 9 8 9 10 9 7 6 5 4 3 4 3 2 1 1 1 2
43 40 37 34 31 28 26 26 25 21 18 19 21 20 19 19 19 18 18 17 17 18 17 16 13 10 7 6 6 8 9 8 6 5 4 3 2 2 1 1 1 1 1
40 38 35 33 31 28 26 25 23 19 17 19 20 19 19 19 18 16 14 13 13 13 13 12 11 9 5 3 4 5 7 7 6 4 3 2 2 2 2 2 2 2 2
38 36 34 34 34 31 26 24 21 17 15 16 18 18 19 19 17 14 11 10 9 10 9 9 9 7 3 2 3 4 5 6 5 3 3 1 1 2 3 2 1 1 1

GEFSSE_con_probscp_180.txt.gz
Probability
0 1 2 3 4 3 1 1 1 1 1 0 1 2 2 1 0 0 0 0 0 0 0 0 0 0 0 0 0 0 0 0 0 0 0 0 0 0 0 0 0 0 1
1 1 3 5 5 4 2 2 2 3 3 1 1 2 2 1 0 0 0 0 0 0 0 0 0 0 0 0 0 0 0 0 0 0 0 0 0 0 0 0 0 1 2
2 2 4 6 6 4 3 3 4 6 5 3 2 2 1 0 0 1 1 0 0 0 0 0 0 0 0 0 0 0 0 0 0 0 0 0 0 0 1 1 1 2 3
3 3 5 7 6 4 3 4 6 7 6 4 3 1 0 0 1 2 2 1 0 0 0 0 0 0 0 0 0 0 0 0 0 0 0 0 0 0 2 2 2 2 2
3 4 6 8 6 4 4 4 5 6 5 4 3 1 1 1 2 3 3 2 1 0 0 0 0 0 0 0 0 0 0 0 0 0 0 0 0 2 4 5 4 3 3
5 5 8 10 9 7 6 5 5 6 6 6 4 3 3 3 3 3 2 3 2 1 0 0 0 0 0 0 0 0 0 0 0 0 0 0 0 3 6 7 6 5 5
9 9 11 13 12 11 9 7 7 8 8 8 7 6 5 4 4 3 3 3 2 1 0 0 0 0 0 0 0 0 0 0 0 0 0 0 0 2 5 8 7 6 6
13 13 13 15 14 13 11 9 8 9 9 9 9 9 8 7 4 3 3 2 1 0 0 0 0 0 0 0 0 0 0 1 1 0 0 0 0 0 2 5 6 6 6
13 14 13 12 12 12 12 11 11 10 10 10 10 9 9 7 4 3 2 2 1 0 0 0 0 0 0 1 1 1 1 2 1 0 0 0 1 1 1 3 3 4 5
10 12 11 9 9 10 12 12 13 11 10 10 10 8 7 5 4 3 2 3 2 1 1 1 1 1 1 2 2 2 1 1 1 0 0 2 4 4 4 5 4 4 4
9 9 9 8 7 8 10 10 11 11 10 10 9 7 5 4 3 2 2 2 2 2 2 2 2 2 1 2 2 2 1 0 0 0 1 3 6 7 8 8 8 7 6
11 8 6 6 6 6 7 7 7 8 9 8 7 6 5 4 3 1 1 1 1 2 3 3 3 2 1 1 1 1 0 0 0 0 1 4 6 8 9 9 9 9 8
14 10 8 7 5 4 5 5 5 6 7 6 6 5 4 4 3 1 0 0 1 2 3 3 2 2 1 0 0 0 0 0 0 0 2 5 6 8 10 8 6 6 6
18 16 13 10 7 5 6 6 6 6 6 5 4 4 4 4 4 3 1 1 1 2 2 1 1 1 1 0 0 0 0 0 0 1 3 6 7 8 11 9 5 4 5
22 20 18 14 10 9 8 8 8 8 6 5 4 4 6 6 5 4 3 2 3 3 2 1 0 0 0 0 0 0 0 1 0 1 2 5 6 7 9 9 6 5 6
24 24 22 18 14 12 11 10 10 9 6 5 5 5 6 5 5 4 4 3 3 2 1 0 0 0 0 0 0 0 0 0 0 0 1 3 5 6 7 8 7 6 4
28 30 28 24 20 17 15 12 11 8 6 5 4 4 5 5 5 5 4 3 2 1 0 0 0 0 0 0 0 0 0 0 0 0 0 1 3 5 6 6 7 5 3
34 34 33 29 25 22 19 15 11 7 5 4 4 4 5 5 5 4 4 3 1 0 1 1 1 0 0 0 0 0 0 0 0 0 0 1 2 3 4 5 5 5 4
36 36 34 31 28 23 19 15 11 8 6 5 5 6 6 6 5 4 4 3 1 0 1 1 1 0 0 0 0 0 0 0 0 0 0 1 1 3 3 3 3 3 4
36 35 35 32 27 20 15 13 11 10 8 7 6 6 6 7 7 6 6 5 2 0 0 0 0 0 0 0 0 0 0 0 0 0 0 1 1 2 3 2 2 2 3
35 34 34 31 24 16 12 11 10 10 8 6 5 5 6 8 9 9 8 6 2 0 0 0 0 0 0 0 0 0 0 0 0 0 0 0 1 2 2 1 1 1 1
33 31 30 27 20 14 11 9 9 8 7 5 4 5 6 8 9 9 8 5 1 0 0 0 0 0 0 0 0 0 0 0 0 0 0 0 0 1 1 0 0 0 0
30 28 25 20 14 11 9 8 7 7 5 4 3 4 4 5 6 6 6 4 1 0 0 0 0 0 0 0 0 0 0 0 0 0 0 0 0 0 0 0 0 0 0
25 24 20 14 9 8 7 6 5 5 4 3 3 3 2 2 2 3 3 3 1 0 0 0 0 0 0 0 0 0 0 0 0 0 0 0 0 0 0 0 0 0 0
22 21 18 12 7 6 6 4 3 3 3 3 2 1 1 1 0 1 1 2 1 0 0 0 0 0 0 0 0 0 0 0 0 0 0 0 0 0 0 0 0 0 0
21 20 17 12 8 6 6 4 3 3 3 3 1 0 0 0 0 0 0 1 1 0 0 0 0 0 0 0 0 0 0 0 0 0 0 0 0 0 0 0 0 0 0

GEFSSE_con_probscp_186.txt.gz
Probability
0 1 2 2 4 4 4 4 6 8 9 9 9 8 8 10 11 9 5 3 2 1 0 0 0 0 0 0 0 0 0 0 0 0 0 0 0 0 0 0 0 0 0
0 1 2 4 5 6 5 5 7 9 10 10 9 8 8 8 8 7 5 3 2 1 0 0 0 0 0 1 1 1 1 1 1 0 0 0 0 0 0 0 0 0 0
0 1 2 5 7 7 6 6 7 9 9 9 8 8 8 8 7 6 5 4 3 2 1 1 0 0 0 1 2 2 2 2 2 1 1 1 1 1 1 0 0 0 0
0 0 2 6 9 8 6 5 6 7 7 7 8 9 10 9 8 7 5 4 3 2 1 0 0 0 0 1 2 3 3 3 3 3 2 2 2 2 2 2 2 1 0
1 0 2 7 11 9 6 5 5 5 6 7 8 10 10 10 9 8 5 4 3 2 0 0 0 0 0 1 1 2 3 3 3 3 3 3 3 3 3 3 3 3 2
2 1 3 9 12 10 7 5 5 5 6 7 8 9 10 9 8 7 5 4 3 2 1 0 0 1 1 1 1 1 1 2 2 2 2 3 3 3 3 3 4 4 4
5 4 6 11 13 11 9 8 8 7 7 7 8 9 10 9 7 5 3 3 4 3 1 1 1 1 2 2 1 0 0 1 1 1 1 2 3 4 4 4 5 6 5
11 11 12 14 15 13 12 13 12 11 10 11 11 11 12 12 9 6 4 3 4 4 3 3 2 1 1 1 0 0 0 0 0 0 0 2 4 5 5 5 6 6 6
17 18 18 16 15 15 15 16 17 16 16 15 15 14 14 14 12 10 7 5 5 6 6 4 2 1 1 0 0 0 0 0 0 0 0 1 3 4 5 6 6 5 4
19 20 20 17 14 14 16 18 19 19 17 15 15 14 13 12 10 10 8 7 8 7 5 3 1 1 1 1 1 1 0 0 0 0 0 2 4 5 6 8 8 6 4
16 16 17 16 13 13 15 17 18 18 14 11 11 12 11 9 7 7 6 6 6 5 3 1 1 2 2 2 2 1 1 0 0 0 0 3 7 8 9 10 10 8 7
13 13 14 14 12 10 13 14 15 14 11 9 8 9 10 8 6 5 5 4 3 3 1 0 1 1 1 1 1 1 2 1 1 0 0 2 6 8 10 11 11 11 10
12 12 12 11 9 8 9 11 12 11 10 9 7 8 8 7 5 4 4 3 2 2 1 1 0 0 1 1 1 1 2 3 2 1 0 1 3 5 7 9 11 11 11
12 11 11 11 9 7 7 8 9 11 11 9 7 6 7 6 4 3 3 3 2 1 1 1 1 1 2 3 3 3 3 3 2 1 0 1 3 3 4 7 10 11 11
11 11 11 12 11 8 6 6 7 8 9 7 5 4 4 4 3 3 2 2 1 1 0 0 1 2 3 5 5 4 3 3 2 1 0 1 3 2 2 4 8 8 8
11 10 11 11 10 7 6 6 5 5 5 5 2 1 1 2 3 2 1 1 0 0 0 0 0 1 2 4 5 5 4 3 3 2 1 2 3 3 3 3 4 5 5
11 11 11 11 9 6 5 5 5 4 4 3 2 1 2 2 2 1 0 0 0 0 0 0 0 0 1 2 4 4 4 4 4 3 2 2 3 4 4 3 2 4 6
12 12 12 13 11 7 4 5 6 5 4 4 3 4 4 4 2 1 0 0 0 0 0 0 0 0 0 1 2 2 3 3 3 3 3 2 2 3 3 3 5 6 7
14 14 13 14 13 9 5 4 4 4 3 3 4 5 6 5 3 1 1 0 0 0 0 0 0 0 0 1 1 1 1 1 2 3 2 1 1 1 1 3 6 9 9
18 17 15 14 12 8 4 2 1 1 1 1 3 3 4 4 3 1 1 0 0 0 0 0 0 0 0 0 0 0 0 0 1 1 1 1 0 0 0 1 4 7 9
19 18 16 13 9 6 4 2 1 2 2 3 2 2 2 3 2 1 0 0 1 1 1 0 0 0 0 0 0 0 0 0 0 0 0 0 0 0 0 0 1 3 4
20 18 16 12 7 4 3 2 1 1 2 3 2 1 1 1 1 2 1 1 1 2 1 1 0 0 0 0 0 0 0 0 0 0 0 0 0 0 0 0 0 0 1
20 18 15 10 4 1 1 1 1 0 1 1 1 1 0 0 1 2 2 1 1 2 2 1 0 0 0 0 0 0 0 0 0 0 0 0 0 0 0 0 0 0 0
18 16 12 8 3 1 0 0 0 0 0 0 0 0 0 0 0 1 1 1 1 2 2 1 0 0 0 0 0 0 0 0 0 0 0 0 0 0 0 0 0 0 0
14 12 9 6 3 1 1 0 0 0 0 0 0 0 0 0 0 0 0 0 0 1 1 0 0 0 0 0 0 0 0 0 0 0 0 0 0 0 0 0 0 0 0
10 9 8 6 4 2 2 1 0 0 0 0 0 0 0 0 0 0 0 0 0 0 0 0 0 0 0 0 0 0 0 0 0 0 0 0 0 0 0 0 0 0 0

GEFSSE_con_probscp_192.txt.gz
Probability
3 3 3 2 1 0 0 1 4 6 8 9 9 7 5 4 3 3 2 1 0 0 0 0 0 0 0 0 0 0 0 0 0 1 1 0 0 0 0 0 0 2 3
4 4 3 1 0 0 1 2 4 6 8 10 10 8 5 4 4 3 2 1 0 1 1 0 0 0 0 0 0 0 0 0 1 2 2 1 0 0 0 1 1 3 4
5 6 4 1 0 0 1 2 4 5 7 10 10 8 6 5 4 3 1 0 1 2 2 1 0 0 0 0 0 0 0 0 1 2 2 1 1 2 2 2 3 3 4
6 7 6 4 1 0 1 3 5 5 6 8 9 8 6 5 3 2 2 2 2 2 2 1 0 0 0 0 0 0 0 0 0 1 1 0 1 3 3 3 3 3 3
6 7 9 8 4 2 4 7 8 7 7 8 7 6 5 4 3 2 3 4 3 2 1 1 0 0 0 0 0 0 0 0 0 0 0 0 2 4 4 3 3 3 3
6 7 9 10 8 7 9 13 14 12 9 7 5 5 5 5 4 3 3 4 3 2 2 1 0 0 0 0 0 0 0 0 0 0 0 0 3 6 5 4 4 4 4
8 9 11 13 13 13 14 17 19 17 12 8 7 7 7 8 6 2 2 2 2 1 1 1 0 0 0 0 0 0 0 0 0 0 0 1 5 8 7 5 6 6 5
9 11 13 15 16 16 16 18 20 20 16 12 11 10 9 8 5 2 1 1 1 1 1 0 0 0 0 0 0 0 0 0 0 0 0 2 7 10 7 5 6 7 6
10 11 13 15 16 17 17 18 19 19 17 14 13 11 9 8 5 2 0 1 2 1 1 0 0 0 0 0 0 0 0 0 0 0 0 5 12 11 5 4 6 7 7
13 13 14 16 17 17 18 19 19 18 15 13 11 10 8 7 5 3 3 4 4 3 2 2 1 0 0 0 0 0 0 0 0 0 3 9 15 12 5 4 7 8 10
18 19 19 21 21 19 20 22 22 19 16 13 10 9 8 7 5 4 5 6 5 4 3 3 2 1 0 0 0 1 2 2 1 2 7 13 16 12 7 5 7 10 11
23 23 24 25 24 22 22 25 24 22 19 15 12 12 12 11 9 7 8 9 7 4 3 3 2 1 0 0 1 2 3 3 3 5 10 16 16 12 8 7 9 11 12
25 25 26 28 28 27 27 28 27 25 23 18 15 17 19 19 16 14 13 12 10 8 6 6 6 4 2 1 1 2 3 4 6 7 12 17 17 11 8 8 10 13 13
27 28 29 29 30 33 34 33 29 27 25 21 19 21 23 24 22 19 19 17 15 14 13 13 13 10 7 3 2 1 2 4 6 8 11 16 16 11 8 7 9 12 13
30 31 31 31 32 37 41 37 32 28 26 23 22 23 23 23 23 22 23 21 18 18 17 16 15 13 10 7 4 3 3 3 4 7 11 15 15 12 10 8 7 9 10
32 31 30 30 32 38 42 39 34 31 28 24 23 24 23 23 23 23 24 23 20 19 19 16 14 13 11 8 5 4 3 3 4 6 10 14 15 14 12 9 8 9 10
35 32 29 28 31 34 36 35 32 29 27 24 23 24 24 22 22 23 25 24 21 20 18 16 14 13 11 8 5 4 4 4 4 4 7 12 15 16 13 11 11 12 12
38 35 32 29 29 30 30 29 27 25 23 21 22 22 20 18 18 21 24 24 22 19 17 15 13 13 11 9 6 6 6 5 4 3 5 10 15 17 15 15 16 16 15
36 36 34 31 29 29 28 26 24 23 21 19 20 19 15 12 13 17 21 22 21 18 15 13 13 14 13 10 7 6 6 5 3 2 4 10 15 18 18 18 18 18 17
33 35 35 32 31 30 27 25 24 23 22 20 18 15 11 7 8 12 16 18 19 17 15 13 13 14 14 10 6 5 5 4 3 3 6 11 15 18 19 18 18 18 17
34 37 37 35 34 33 29 25 24 23 22 19 15 13 9 5 4 8 12 15 17 16 14 13 14 14 11 8 6 5 3 2 2 5 9 12 14 16 16 16 15 15 16
38 40 41 38 36 35 31 27 26 24 21 17 16 15 10 5 4 5 9 12 15 14 12 12 14 14 11 8 7 6 4 2 1 5 9 12 13 14 13 12 11 12 14
39 41 42 40 38 35 31 28 26 23 19 17 17 16 11 7 5 5 7 9 11 11 11 12 14 15 14 12 10 8 7 5 2 3 8 11 11 12 11 9 7 8 10
39 40 40 40 39 37 33 29 26 21 18 16 16 15 12 8 5 5 5 6 8 10 11 12 13 15 16 16 13 10 8 7 4 4 6 9 9 9 9 7 6 6 6
36 37 38 37 37 36 34 31 26 21 17 15 14 13 12 11 7 5 4 4 6 10 11 11 12 14 16 16 14 10 7 7 7 5 4 5 5 5 6 6 5 5 6
34 35 35 34 34 33 32 31 27 21 16 14 12 10 12 13 10 5 4 5 7 10 11 10 11 13 15 16 13 10 7 7 7 6 3 2 2 3 4 6 6 6 5

GEFSSE_con_probscp_198.txt.gz
Probability
14 13 13 11 7 3 1 0 0 0 0 0 0 0 1 1 1 1 0 0 0 0 0 0 0 0 0 0 0 0 0 0 0 0 0 1 2 2 2 1 0 2 4
17 15 16 14 8 3 1 0 0 0 0 0 0 0 1 1 1 0 0 0 0 0 0 0 0 0 0 0 0 0 0 0 0 0 0 0 1 2 2 2 2 3 5
20 18 18 18 12 7 3 1 0 0 0 0 0 0 1 1 0 0 0 0 0 0 0 0 0 0 0 0 0 0 0 0 0 0 0 0 1 4 5 5 5 5 5
25 22 22 23 20 13 7 2 0 0 0 1 2 1 1 1 1 1 0 0 0 0 1 0 0 0 0 0 0 0 0 0 0 0 0 0 5 10 10 6 6 5 5
31 30 30 30 25 18 12 6 2 1 1 2 2 2 2 3 3 2 1 0 0 0 0 0 0 0 0 0 0 0 0 0 0 0 0 1 10 19 17 9 6 6 5
33 33 35 35 30 24 19 13 8 5 4 4 3 4 4 4 4 4 3 1 0 0 0 0 0 0 0 0 0 0 0 0 0 0 0 2 13 25 24 14 9 9 9
34 36 38 38 36 31 27 23 18 12 9 7 6 5 6 6 5 5 5 2 1 1 1 0 0 0 0 0 0 0 0 0 0 0 1 4 17 29 28 18 13 12 12
40 41 41 38 37 35 34 30 24 18 15 13 11 9 8 9 8 6 6 4 3 3 2 1 1 1 1 1 0 0 0 0 0 0 1 8 23 35 32 23 17 14 13
43 44 41 36 35 35 35 32 28 23 21 20 18 14 12 12 10 7 7 7 5 4 3 3 2 2 2 2 1 1 1 1 0 0 2 11 29 40 35 27 21 17 14
41 41 39 35 33 33 34 34 31 28 27 26 22 18 17 15 11 10 12 12 8 5 4 3 3 3 3 3 3 3 3 2 1 1 5 17 33 39 35 28 23 18 14
40 38 36 34 33 32 33 34 33 32 30 28 24 22 21 18 13 13 15 16 14 10 8 6 5 4 4 5 7 7 6 4 2 3 11 25 37 38 32 28 25 19 13
41 39 36 36 35 34 35 35 34 34 33 30 28 29 27 22 17 15 18 21 20 17 14 11 8 7 6 7 10 11 9 6 4 5 16 32 41 37 32 29 26 20 16
41 41 41 40 39 37 39 40 38 38 39 35 34 35 32 27 22 19 22 25 25 23 18 14 11 10 10 10 12 13 11 8 5 6 16 32 39 36 32 29 25 21 19
40 41 43 45 46 45 45 44 43 44 45 42 41 40 37 33 29 26 27 28 28 26 22 16 14 14 13 12 12 12 11 9 7 8 15 27 34 33 29 26 23 20 18
41 42 45 49 53 55 52 47 45 46 46 46 45 44 41 38 35 33 32 30 27 25 24 21 17 17 16 14 12 11 11 11 11 10 13 21 28 28 26 24 21 18 17
50 52 53 55 59 60 55 48 44 43 43 43 43 43 42 40 39 38 35 30 25 24 26 25 20 19 19 16 14 12 12 13 14 14 14 18 22 24 25 25 22 19 18
61 62 61 59 60 60 55 48 42 39 38 39 39 39 39 39 39 39 35 30 26 26 27 26 22 20 19 18 16 14 14 14 14 14 15 17 18 20 24 27 25 21 19
65 64 60 55 55 57 54 49 42 39 38 39 38 38 38 37 36 35 31 27 27 28 26 24 22 20 17 17 16 15 15 14 12 11 12 13 15 19 24 27 26 24 22
64 62 57 53 52 54 53 49 45 43 44 43 41 40 41 38 35 31 26 24 25 26 24 21 19 17 15 14 13 14 15 14 12 11 12 13 14 18 23 24 25 26 26
60 58 55 53 52 51 50 49 48 48 46 44 42 40 41 39 34 28 23 22 23 22 20 17 14 13 13 11 9 11 12 13 14 16 16 15 16 18 20 22 23 25 25
56 55 54 53 51 49 48 48 49 49 46 42 40 37 37 36 32 26 22 21 21 19 17 13 9 8 9 8 8 8 9 11 13 15 16 17 16 16 17 20 22 23 22
55 54 53 52 50 47 47 47 47 47 45 41 37 35 33 31 28 24 22 21 20 18 15 12 8 5 5 6 7 7 8 9 11 11 12 12 12 12 13 17 20 20 18
51 51 52 52 50 46 45 45 45 45 42 39 35 32 29 26 24 21 20 20 19 18 15 11 7 5 5 5 6 8 9 10 11 10 8 8 9 8 8 11 14 13 11
44 46 50 52 49 46 44 44 44 42 39 37 34 29 26 22 20 18 18 20 19 18 14 10 6 6 6 6 6 7 9 11 11 9 7 7 7 6 5 7 7 6 5
38 40 46 50 49 46 44 43 41 38 35 34 31 27 22 19 17 16 17 18 18 16 14 10 8 7 7 7 7 7 8 9 10 8 7 6 6 5 5 5 5 4 2
35 35 42 49 49 46 43 41 38 35 32 30 28 25 20 17 16 15 16 16 16 15 13 11 9 7 7 7 7 6 7 8 9 8 7 6 6 4 4 5 5 4 2

GEFSSE_con_probscp_204.txt.gz
Probability
4 7 12 16 19 19 16 13 12 13 15 13 10 7 5 4 3 1 1 1 1 2 3 3 3 3 3 2 1 0 0 0 0 0 0 0 0 0 1 1 1 2 5
7 8 12 16 20 20 16 12 12 13 15 13 10 8 7 5 4 3 2 3 3 3 3 3 3 3 3 2 1 0 0 0 0 0 0 0 0 1 2 2 2 4 6
11 10 12 18 24 24 18 12 11 12 13 12 10 9 7 5 4 4 4 5 6 5 4 3 3 2 1 1 0 0 0 1 1 1 2 1 1 3 6 6 5 6 8
16 13 13 21 28 28 23 16 13 11 10 9 9 8 6 5 4 4 5 6 6 5 4 2 2 1 0 0 0 0 0 0 1 1 2 2 3 4 8 9 8 8 10
20 17 18 24 30 31 27 21 16 11 9 8 8 7 6 6 6 5 6 7 8 7 5 3 3 2 1 1 1 1 1 1 1 1 2 3 4 4 6 7 7 9 10
21 22 25 29 31 31 28 23 17 13 12 10 9 8 7 7 7 6 7 9 9 9 7 5 4 3 3 2 2 2 2 2 1 1 1 2 4 5 6 6 7 8 9
23 24 28 34 35 33 30 24 19 17 17 15 12 11 10 9 9 7 7 7 8 8 8 6 4 3 3 2 3 3 3 3 1 0 1 1 3 7 10 10 11 11 10
27 26 30 35 37 34 31 28 25 23 21 19 16 15 14 13 11 9 6 5 7 9 9 8 5 4 2 2 2 3 3 2 1 0 0 1 2 6 12 15 16 15 12
34 32 32 34 34 34 32 31 29 27 24 21 18 17 16 15 13 10 8 7 9 11 12 11 9 6 4 3 3 4 4 3 2 1 1 1 2 6 12 15 16 14 11
39 36 33 33 32 30 30 30 30 29 27 23 19 18 17 16 13 11 10 11 12 13 13 13 11 10 8 6 5 5 5 5 4 3 2 1 3 9 13 14 13 11 10
39 36 33 32 31 29 27 27 28 28 26 23 20 18 17 14 11 10 11 13 14 13 13 12 13 13 11 9 7 6 5 5 4 3 3 3 5 10 12 13 11 10 11
37 34 32 32 32 30 26 24 25 24 21 19 17 16 14 12 10 9 10 11 12 13 13 13 13 14 14 11 8 5 4 4 3 3 3 4 6 8 9 10 10 10 11
35 34 33 33 32 29 25 23 22 20 18 17 15 13 12 11 10 9 8 7 8 11 13 14 15 16 15 12 8 5 4 3 3 3 3 5 7 8 9 10 9 10 12
36 35 34 33 31 27 25 24 23 21 18 16 14 12 12 12 11 11 9 7 7 9 11 13 15 15 14 12 8 5 4 3 3 1 2 4 7 9 10 11 9 9 12
37 36 34 31 28 25 24 24 23 21 18 16 14 13 14 14 15 14 14 12 10 9 9 10 10 11 10 9 6 4 3 3 2 1 0 2 6 8 10 10 8 6 8
37 37 35 31 26 24 22 21 20 20 18 16 15 15 15 16 16 16 16 15 12 9 7 5 5 5 5 4 3 2 2 3 2 1 0 1 4 8 11 12 10 7 5
38 37 36 32 25 21 20 19 19 21 20 18 17 17 16 16 15 14 14 13 11 8 4 2 1 1 1 1 1 1 1 2 2 1 1 1 3 6 11 14 15 12 8
39 38 36 33 26 22 22 21 21 22 22 20 19 18 17 16 14 13 13 11 9 6 2 0 0 0 0 0 0 0 1 1 1 2 2 3 3 4 6 11 15 15 13
38 38 36 33 28 26 25 24 23 23 23 22 20 18 17 17 15 14 13 10 7 4 1 0 0 0 0 0 0 0 0 0 0 1 2 3 3 2 2 4 8 12 13
36 36 36 34 31 28 27 26 25 24 23 22 20 19 19 18 17 16 12 7 5 4 2 1 0 0 0 0 0 0 0 0 0 0 2 3 3 2 1 1 2 5 8
32 34 34 33 32 29 27 26 26 25 24 22 21 20 19 19 18 15 10 5 3 3 2 1 0 0 0 0 0 0 0 0 0 1 2 3 3 2 1 1 0 1 2
32 33 32 31 30 28 26 26 26 25 23 21 20 18 18 19 18 14 8 4 2 1 1 0 0 0 0 0 0 0 0 0 0 1 2 2 2 1 1 1 2 1 1
29 29 29 27 26 25 23 24 25 23 20 17 16 15 16 17 16 12 7 4 1 0 0 0 0 0 0 0 0 0 0 0 0 0 1 1 1 0 1 2 3 3 1
23 24 25 24 22 21 21 22 23 20 16 13 12 12 12 13 13 11 7 3 1 0 0 0 0 0 0 0 0 0 0 0 0 0 0 0 0 0 1 2 3 2 1
19 21 23 22 20 19 18 19 18 15 12 10 8 9 9 9 9 8 6 3 1 0 0 0 0 0 0 0 0 0 0 0 0 0 0 0 0 0 0 1 1 0 0
19 21 23 22 19 17 17 16 14 12 9 7 6 6 7 8 7 6 5 3 1 0 0 0 0 0 0 0 0 0 0 0 0 0 0 0 0 0 0 0 0 0 0

GEFSSE_con_probscp_210.txt.gz
Probability
2 7 13 14 14 16 21 23 24 25 27 24 19 17 19 20 19 18 15 14 13 13 13 13 12 9 7 6 5 4 3 2 1 0 0 0 0 0 1 1 1 1 1
4 8 13 14 15 19 23 24 24 25 25 23 21 20 19 20 20 19 18 15 14 13 12 12 11 10 9 8 7 5 3 3 2 1 1 1 0 0 1 2 2 2 3
7 11 14 15 19 24 26 26 25 24 24 23 22 21 21 20 19 20 19 17 15 13 11 11 10 10 10 9 9 7 4 3 4 4 4 3 1 1 2 2 3 4 6
12 15 18 20 24 29 30 29 26 25 24 23 22 22 21 19 18 19 19 18 16 14 11 10 10 10 10 10 10 8 6 5 5 6 6 5 4 4 4 4 4 5 4
16 19 23 27 30 34 35 33 30 27 26 24 23 21 20 20 19 19 19 19 18 17 13 11 10 10 10 11 11 9 7 6 6 6 7 7 7 8 7 7 7 6 3
19 21 27 32 36 39 39 36 32 29 28 26 22 20 20 21 20 19 18 19 19 18 15 11 9 9 9 11 11 9 7 6 5 6 7 9 9 9 9 9 9 7 4
18 21 27 35 39 40 39 35 31 29 27 25 22 21 21 20 19 17 15 15 15 15 14 11 9 8 8 8 8 8 7 5 4 5 6 8 9 9 9 8 7 5 4
18 19 25 32 36 36 36 34 30 28 26 24 23 23 22 21 19 15 12 10 11 12 11 10 9 8 7 6 7 8 8 7 5 4 4 5 6 8 9 8 6 5 5
19 21 24 28 31 32 33 33 30 28 26 23 22 22 23 22 20 17 13 11 11 10 8 8 9 8 7 7 8 9 9 9 8 5 3 3 5 7 9 9 7 6 6
21 22 25 28 31 32 32 31 30 28 25 22 20 19 20 21 18 16 15 14 13 11 8 7 7 8 7 7 7 7 8 9 8 6 4 3 4 7 9 10 9 7 6
24 24 27 30 32 32 31 31 30 28 25 21 18 16 16 14 12 12 12 13 13 13 11 9 8 8 7 6 5 5 6 8 7 5 4 3 4 6 7 8 8 7 5
29 28 28 30 31 31 31 31 29 26 23 19 16 13 11 9 8 9 9 9 11 13 13 12 11 11 8 6 6 5 6 8 8 6 5 5 5 6 5 5 6 6 5
31 31 30 30 30 29 29 29 26 22 19 17 14 12 10 9 8 9 8 7 8 11 12 12 12 11 10 10 10 8 9 10 10 9 8 8 9 7 4 4 4 4 5
30 30 30 30 30 29 28 26 23 20 17 15 15 14 12 10 10 9 8 7 7 9 10 10 10 10 10 12 12 10 10 11 11 11 9 9 9 6 4 4 4 4 5
29 29 28 28 28 28 26 23 21 19 17 16 17 17 14 12 10 8 7 6 7 9 9 10 10 9 9 9 9 8 9 8 7 7 7 6 5 4 4 4 4 4 5
28 27 26 25 25 25 23 21 19 18 16 17 19 19 16 12 9 8 7 7 9 9 10 11 11 9 8 6 5 4 4 3 2 2 2 2 3 4 5 6 6 5 4
25 25 25 24 23 21 20 19 18 17 16 17 19 20 18 14 11 10 9 10 10 10 10 11 11 9 6 4 2 1 1 0 0 1 1 1 4 6 5 6 6 5 5
22 24 24 23 21 19 18 18 19 19 17 18 19 18 17 14 13 12 12 11 11 10 9 8 7 5 3 2 0 0 0 0 1 2 2 3 5 6 5 5 5 5 6
19 21 22 21 19 18 17 17 18 19 18 18 18 17 15 14 13 13 13 11 11 10 8 5 3 2 2 1 0 0 0 0 1 2 3 3 4 5 5 5 5 4 4
16 16 18 18 16 16 16 16 16 16 16 15 15 14 13 13 13 14 14 11 10 9 7 3 1 0 1 1 0 0 0 0 0 1 2 3 3 4 5 6 6 4 2
12 13 15 15 13 13 14 13 12 10 10 11 10 9 10 11 12 14 15 13 10 7 5 3 1 0 0 0 0 0 0 0 0 0 2 3 3 3 4 5 5 4 3
9 11 12 12 11 10 11 12 10 7 6 6 6 5 5 7 9 11 13 13 10 7 5 3 1 0 0 0 0 0 0 0 0 0 1 2 3 3 3 3 3 3 3
7 8 9 9 10 11 12 12 9 6 4 4 4 3 3 4 5 6 8 10 11 8 6 4 1 0 0 0 0 0 0 0 0 0 1 1 1 2 2 1 1 1 1
7 7 7 8 11 14 14 12 9 7 6 5 3 1 1 2 1 2 4 6 8 8 6 4 1 0 0 0 0 0 0 0 0 0 0 0 0 1 1 0 0 0 0
8 7 6 9 13 15 14 11 10 9 7 4 2 1 0 0 0 1 2 4 5 5 5 4 2 1 1 0 0 0 0 0 0 0 0 0 0 0 0 0 0 0 0
8 7 6 9 14 15 12 10 10 9 6 3 1 0 0 0 0 0 1 3 3 4 4 4 3 2 2 1 0 0 0 0 0 0 0 0 0 0 0 0 0 0 0

GEFSSE_con_probscp_216.txt.gz
Probability
9 17 23 19 13 9 8 10 13 14 14 14 14 15 14 14 14 13 11 11 11 10 10 9 9 8 6 5 4 4 4 3 3 3 3 3 3 4 4 5 5 5 6
9 17 24 23 18 14 11 13 16 17 16 16 16 15 15 14 14 13 12 12 12 13 12 11 9 8 7 6 6 5 4 4 4 4 3 3 3 4 5 6 7 8 10
10 16 22 23 23 20 18 19 22 23 22 21 20 19 17 15 14 13 12 13 14 15 15 12 10 9 8 7 6 6 6 6 6 5 4 3 2 4 5 6 7 9 10
10 15 20 23 24 25 24 23 25 27 28 27 26 25 23 20 17 15 13 12 13 14 13 11 9 8 7 6 6 6 6 7 6 4 3 3 3 5 6 6 6 7 7
13 17 22 23 23 26 27 26 27 29 30 31 30 29 27 24 22 19 15 13 12 12 10 9 7 6 6 6 7 6 6 7 5 3 2 3 6 8 8 7 6 6 7
17 20 24 24 22 24 27 27 28 28 28 29 28 26 26 25 23 21 17 14 12 11 10 9 8 7 7 7 8 8 7 6 3 2 2 5 9 12 11 8 7 7 9
21 22 25 25 22 20 22 23 24 24 24 24 22 21 21 22 22 21 18 15 13 12 12 11 11 10 9 8 7 7 8 7 4 2 4 6 10 14 13 11 11 11 10
21 22 25 25 22 19 19 20 20 20 20 21 20 19 18 18 18 17 16 14 11 11 12 12 12 12 11 8 6 6 7 8 5 3 3 5 9 11 11 12 14 14 13
19 21 23 23 22 20 20 21 20 19 18 19 20 19 17 15 14 13 12 11 9 9 10 12 13 13 12 10 8 7 7 7 6 4 4 7 11 10 9 12 14 14 15
17 18 19 20 20 20 20 22 23 20 19 19 19 19 17 15 12 11 10 9 8 7 9 11 13 13 13 12 10 9 8 8 7 5 6 13 18 14 11 12 13 13 14
19 18 19 20 19 18 19 23 25 23 21 20 20 20 18 16 13 12 12 12 10 9 9 11 12 13 13 13 13 12 11 10 8 8 11 19 22 17 13 13 13 12 12
23 20 20 22 20 19 20 24 26 25 23 22 21 20 19 17 14 13 14 15 14 12 10 11 12 13 13 14 16 16 15 12 10 11 16 23 22 15 12 13 13 12 11
24 22 21 23 22 22 23 25 26 26 24 23 22 20 19 19 17 15 14 15 16 14 12 11 12 12 13 14 16 18 16 14 13 14 20 27 24 16 11 10 11 11 11
22 22 22 23 23 23 24 26 26 26 25 25 24 24 22 21 19 17 17 18 18 17 15 13 12 12 13 14 14 14 13 12 12 15 23 28 26 19 12 9 10 10 11
19 21 22 23 24 24 25 26 25 25 25 25 26 27 27 23 20 20 22 22 21 19 17 14 12 12 14 15 13 11 9 9 11 16 22 25 24 18 12 9 10 11 11
17 19 20 22 24 25 25 24 23 22 22 23 25 28 27 25 24 24 25 24 22 21 20 17 12 11 14 17 14 11 10 10 12 15 19 21 18 13 9 8 10 11 10
18 20 21 24 26 27 27 25 23 21 19 19 22 25 26 26 27 27 25 25 25 25 24 21 16 13 16 17 14 11 11 11 11 12 15 16 13 9 6 6 8 9 7
24 25 26 27 30 31 29 27 24 21 19 17 19 23 24 25 27 26 24 25 27 27 26 25 21 18 17 16 14 12 11 10 8 8 10 10 9 9 8 8 9 10 9
26 28 28 29 31 31 29 26 23 20 19 18 20 23 25 25 26 25 26 27 28 25 24 25 24 20 17 15 13 11 10 8 7 5 5 6 7 8 9 10 11 12 12
24 25 25 26 28 28 27 25 22 20 19 19 21 24 26 25 25 26 28 29 28 25 23 23 22 20 17 14 11 9 9 7 6 5 4 4 5 6 7 8 10 11 12
22 22 22 23 24 25 26 27 24 21 20 18 19 22 24 23 22 24 25 27 27 26 24 22 20 18 16 14 11 8 7 6 6 5 4 4 4 4 4 5 7 9 10
20 20 21 22 22 22 23 25 24 21 19 16 16 20 22 21 20 20 21 22 24 24 22 20 17 15 14 12 11 8 6 4 4 4 4 4 4 3 3 4 6 8 9
17 18 18 19 19 20 19 20 21 20 16 15 15 18 20 19 16 16 18 20 19 18 17 15 14 11 9 9 9 8 6 4 5 6 5 4 3 3 4 4 5 7 8
13 13 14 16 17 17 17 18 19 18 15 14 15 17 17 15 13 13 14 16 15 12 11 12 11 9 7 7 7 7 6 5 6 8 7 5 4 4 4 4 4 5 6
10 11 12 14 15 16 17 17 17 16 13 13 15 15 14 12 10 9 9 10 10 9 9 11 10 9 8 7 7 6 6 7 7 8 7 6 6 5 4 5 5 5 5
10 10 11 13 15 16 16 16 15 13 11 12 13 14 13 11 9 8 7 7 7 8 9 10 9 9 9 9 8 6 6 7 7 7 5 5 6 6 5 6 6 5 5

GEFSSE_con_probscp_222.txt.gz
Probability
23 23 25 24 18 11 8 7 6 4 2 0 0 1 2 3 3 2 1 2 3 3 3 3 3 3 2 2 3 4 6 8 9 9 9 8 8 9 9 7 7 9 12
24 24 26 26 20 13 10 8 6 5 3 1 0 1 2 3 2 2 1 1 3 3 3 4 4 4 4 4 4 5 7 9 9 8 7 6 7 9 10 8 7 11 14
25 24 26 28 24 18 13 9 8 6 3 1 1 2 2 2 1 1 1 1 2 3 4 5 6 5 4 4 4 6 8 9 8 7 6 6 7 13 15 11 9 10 12
27 27 29 32 29 22 17 13 9 7 4 3 3 3 1 1 0 1 1 0 1 3 5 7 7 7 6 5 5 7 8 7 6 6 6 6 11 21 23 17 11 10 10
30 33 35 36 34 28 22 17 12 9 7 6 6 4 2 1 1 2 1 1 2 4 7 9 9 9 8 7 8 9 8 6 5 5 6 6 14 26 28 20 15 13 14
32 36 39 39 37 31 26 21 17 14 13 11 10 8 5 4 4 4 4 4 5 6 8 10 11 9 7 7 7 9 9 6 5 6 7 8 17 30 30 22 17 15 16
32 37 40 41 39 32 26 23 21 20 19 17 15 14 13 11 9 7 7 7 8 9 9 10 10 7 5 4 6 8 9 8 6 7 9 13 24 37 35 25 18 16 15
33 36 38 39 38 32 26 23 23 24 24 22 21 20 19 17 14 10 8 7 7 9 11 11 11 8 4 4 4 6 8 8 6 6 8 16 32 44 40 29 21 18 17
32 32 33 33 32 31 27 25 26 27 26 24 23 22 21 19 17 13 9 6 6 8 10 13 13 11 7 5 5 6 7 7 6 4 6 19 37 47 43 33 24 20 19
27 27 27 26 26 25 25 25 26 27 27 25 23 22 21 20 18 15 12 11 10 9 11 14 16 14 11 9 7 7 9 10 7 5 6 20 37 43 39 32 24 21 20
27 25 24 24 23 20 21 24 25 25 25 25 24 24 23 21 19 17 18 21 19 17 16 17 18 17 14 13 12 12 13 12 9 5 7 19 32 35 32 28 23 22 22
28 25 25 25 22 18 22 29 28 27 27 26 25 26 27 25 22 19 23 29 29 26 24 22 21 18 16 16 17 18 17 13 9 6 8 19 28 28 26 25 22 20 21
28 25 24 26 25 23 27 32 32 31 32 29 27 28 29 28 26 26 29 34 35 32 29 26 25 24 20 19 21 23 20 15 11 9 12 21 27 26 25 25 23 19 18
28 25 25 28 30 32 33 33 30 31 33 32 31 31 31 32 32 32 33 36 37 35 32 30 31 30 26 23 23 23 20 16 14 13 16 22 26 26 25 25 23 19 17
31 29 29 32 36 39 37 33 29 28 30 33 36 36 35 37 37 35 36 37 35 34 34 33 32 30 28 25 24 22 19 16 15 14 17 22 26 27 26 26 24 19 17
35 34 34 36 40 42 41 36 31 28 28 32 38 40 39 38 38 38 39 37 34 32 33 33 30 27 26 25 24 24 21 17 14 14 15 18 24 27 28 27 25 20 17
33 34 34 35 39 43 44 39 32 28 28 30 35 39 38 37 38 39 39 36 31 29 30 30 28 24 22 22 23 24 23 19 16 15 15 15 17 21 25 27 26 22 19
29 32 33 33 36 42 45 42 33 29 28 29 32 36 36 35 36 38 37 33 28 26 26 26 24 21 20 19 20 20 20 19 18 16 16 14 13 15 21 25 25 23 22
28 31 33 34 36 40 44 42 37 33 31 29 30 34 34 33 33 33 33 30 27 25 24 23 21 20 18 18 17 16 16 18 17 16 15 13 13 15 18 21 22 22 22
31 32 33 36 39 40 41 40 38 37 33 29 28 32 33 31 30 29 29 28 27 25 24 22 22 20 18 17 15 12 13 15 15 15 13 12 14 16 16 17 18 18 18
35 35 36 39 42 42 39 36 36 36 33 29 28 30 30 28 27 27 27 27 26 24 23 23 21 18 16 16 14 10 10 13 13 13 12 12 13 14 14 14 15 16 16
35 36 38 40 42 42 37 32 31 32 31 30 31 30 27 25 24 25 26 25 24 23 23 22 20 15 12 13 11 8 7 10 11 10 10 11 11 13 13 13 13 13 13
31 31 33 36 39 38 33 27 24 26 28 29 30 27 24 21 21 23 22 21 21 21 22 21 18 13 10 8 6 5 5 7 8 9 9 9 8 9 10 10 9 9 9
27 27 29 33 35 32 26 21 20 21 22 23 23 22 19 17 18 20 20 18 19 20 20 18 16 13 9 5 3 3 4 4 5 6 7 6 5 5 6 5 5 6 7
25 25 27 30 30 26 21 19 19 19 18 18 18 17 15 14 15 16 18 18 18 19 17 15 14 11 8 4 3 3 4 4 4 4 4 3 3 3 3 3 3 4 6
24 22 25 28 28 22 17 17 19 19 17 16 16 15 14 13 13 14 17 18 18 16 14 13 11 9 7 5 4 4 4 4 4 3 2 2 2 3 3 3 3 4 5

GEFSSE_con_probscp_228.txt.gz
Probability
0 3 11 19 21 20 17 12 8 6 6 8 10 12 12 11 10 10 10 10 10 9 8 6 6 5 6 8 9 10 10 8 5 5 7 7 6 6 5 4 3 7 12
1 4 14 22 25 23 19 13 9 7 8 9 11 12 12 12 12 12 11 10 10 9 8 5 4 4 5 7 9 10 11 11 9 8 8 7 7 7 6 5 6 10 14
2 5 15 24 27 26 22 16 13 12 12 12 12 12 13 14 15 15 14 11 9 8 6 3 2 4 5 7 8 10 13 13 13 11 9 8 8 9 9 9 10 14 17
4 6 14 24 27 26 24 21 18 18 17 16 14 13 14 15 15 15 14 12 8 6 4 2 3 5 7 7 7 9 11 12 13 11 9 7 8 12 13 14 15 18 20
8 9 15 25 28 25 24 23 22 21 21 19 17 15 15 15 14 13 13 11 8 5 5 5 5 7 8 8 7 6 7 8 9 9 7 6 7 11 15 16 18 21 22
10 9 15 24 27 25 23 23 23 22 21 21 19 17 17 15 13 11 10 9 8 7 7 7 8 9 9 9 8 7 5 4 4 6 6 5 5 9 14 17 20 21 22
10 10 14 22 26 24 22 22 23 22 20 20 20 20 20 18 15 12 10 9 8 7 7 7 9 10 9 9 9 8 6 4 3 5 5 4 5 10 15 19 22 23 23
14 15 18 21 22 21 20 22 22 22 22 21 22 24 25 23 20 16 12 10 9 8 7 6 7 8 10 10 10 9 7 5 4 4 4 4 7 13 18 20 23 24 23
18 21 23 21 17 16 18 20 22 25 25 24 25 27 29 28 25 20 17 15 13 12 10 7 6 8 10 11 11 10 8 6 4 4 4 4 7 13 18 23 26 26 23
16 20 24 22 17 15 16 18 21 25 27 26 26 28 30 29 25 22 22 21 19 17 15 13 11 11 12 13 14 12 11 8 6 6 5 5 6 10 17 25 29 28 24
11 14 20 21 19 17 16 17 20 22 24 24 25 26 27 27 24 22 22 23 22 20 19 19 18 17 16 16 15 15 15 13 11 9 8 8 9 12 17 26 31 29 27
10 11 14 17 18 17 16 17 19 19 19 20 21 21 22 23 22 20 19 19 20 21 20 21 22 21 19 17 16 17 18 18 15 13 11 11 12 14 19 26 30 30 30
12 11 10 13 15 16 16 16 19 20 18 17 16 16 18 19 19 18 18 17 18 19 19 20 22 22 20 19 18 18 18 18 17 14 13 14 14 16 21 26 29 31 32
15 13 10 10 13 15 16 17 19 21 20 17 15 15 16 16 15 15 15 16 16 17 17 19 22 21 19 19 18 17 17 18 17 15 13 13 15 18 23 26 29 33 33
17 16 13 11 12 13 15 17 17 17 17 16 15 15 15 15 13 13 13 14 14 15 17 18 19 19 17 16 16 16 16 16 16 14 12 11 14 20 24 25 28 33 34
16 15 12 10 11 11 12 13 11 11 12 13 13 13 14 14 12 12 12 13 14 15 16 16 16 16 15 13 13 14 14 13 12 11 9 9 12 18 22 23 25 30 32
12 11 9 8 9 9 8 7 7 8 9 10 10 10 12 13 13 12 12 13 14 14 14 13 13 14 13 11 11 11 10 9 9 8 7 7 8 13 17 19 22 26 28
8 7 7 9 8 7 7 7 7 8 9 9 8 7 9 11 12 13 12 12 12 12 11 10 10 11 11 10 8 8 7 7 7 7 6 6 6 7 11 15 18 21 23
6 5 7 9 9 8 7 8 8 8 9 9 8 7 7 9 11 12 12 12 11 10 9 8 8 9 9 8 6 5 4 4 5 6 6 6 5 5 7 10 12 14 16
6 5 5 7 9 9 8 9 8 7 6 7 7 7 6 7 8 10 11 11 11 11 9 7 7 7 7 6 4 2 2 2 3 4 4 5 5 4 5 6 6 8 10
7 6 4 5 6 7 7 8 7 4 4 5 6 6 5 4 5 8 10 11 11 11 10 7 6 6 5 5 3 1 0 0 1 2 3 4 4 4 4 5 4 5 6
8 7 5 5 5 7 8 7 5 4 3 5 6 6 5 4 4 6 8 10 11 11 9 7 5 4 4 3 2 1 0 0 0 1 2 4 4 4 3 4 3 3 4
11 9 7 6 6 8 8 7 5 5 5 5 6 5 5 5 6 7 8 9 10 10 8 5 4 3 3 2 1 0 0 0 0 0 1 2 3 3 3 3 3 3 3
10 10 8 7 7 7 7 7 7 7 6 5 5 4 4 6 7 7 7 8 9 8 6 4 4 4 3 1 0 0 0 0 0 0 0 0 1 1 1 2 3 3 3
8 8 8 7 6 6 6 7 8 8 7 7 6 5 5 5 6 7 7 7 7 7 6 4 4 4 3 1 0 0 0 0 0 0 0 0 0 0 0 1 2 2 2
5 7 7 6 5 5 5 6 8 9 9 9 8 7 6 6 6 6 6 6 6 6 6 5 3 3 2 1 0 0 0 0 0 0 0 0 0 0 0 0 1 1 1

GEFSSE_con_probscp_234.txt.gz
Probability
2 6 9 8 10 17 21 19 17 17 18 17 19 22 23 21 17 13 13 13 13 12 9 5 2 1 1 3 3 3 1 1 3 5 5 4 4 6 7 6 4 3 3
2 6 8 7 8 15 20 19 17 17 19 20 20 20 20 18 16 15 13 13 12 12 10 7 3 1 2 3 3 3 2 1 2 4 5 4 4 7 8 7 5 4 4
3 5 8 7 8 12 16 17 15 16 19 21 20 19 18 17 16 16 14 12 12 12 11 9 5 3 3 3 4 4 4 2 1 3 5 5 5 7 9 10 8 7 6
5 7 10 11 11 12 13 15 14 15 17 19 19 18 17 17 17 16 15 14 12 12 11 9 6 5 4 4 5 5 5 4 4 4 6 7 6 7 9 12 12 11 9
7 9 12 15 16 15 15 16 17 15 16 18 18 17 16 16 17 16 16 15 13 11 10 9 8 6 6 6 6 7 7 8 8 8 8 8 7 8 10 12 15 14 13
10 10 13 18 20 18 17 19 20 19 18 20 19 18 17 18 18 17 16 15 13 9 8 8 8 7 7 8 8 9 11 12 11 10 10 9 8 9 11 12 14 15 16
12 12 14 18 21 20 17 18 21 23 23 21 20 19 19 19 19 18 16 14 12 9 8 7 8 9 10 10 10 10 10 11 11 10 9 8 8 9 12 13 13 14 15
15 14 14 17 20 20 17 17 21 25 25 22 20 20 19 19 19 18 17 15 12 10 9 8 9 11 12 10 9 8 7 7 9 9 8 7 7 9 12 14 15 14 14
18 17 15 16 17 18 19 20 23 25 26 25 24 22 20 19 19 19 19 16 14 13 10 8 9 10 10 8 7 6 4 4 6 8 8 8 8 9 11 15 18 17 16
17 16 15 16 16 17 18 21 23 25 25 25 23 22 19 19 19 20 21 20 18 17 14 11 10 10 9 7 6 5 5 6 8 9 9 8 10 11 12 15 19 21 20
13 12 13 15 16 15 16 18 19 19 20 19 18 18 16 16 18 20 22 22 20 19 18 15 13 12 12 11 9 9 9 10 12 13 12 11 11 12 12 13 17 21 22
9 9 10 12 13 12 12 14 14 14 14 14 15 16 15 15 15 17 20 20 18 17 18 16 13 12 13 14 14 14 13 13 15 16 16 15 14 13 13 15 18 20 22
5 5 6 7 7 8 10 12 13 13 13 14 15 15 14 14 14 15 16 16 14 14 15 15 12 12 12 13 14 14 14 15 16 16 16 16 15 15 16 19 20 20 23
3 3 3 3 3 5 8 11 13 14 14 14 13 12 12 12 12 13 14 13 12 13 13 13 12 11 11 10 10 11 13 14 15 14 13 13 14 14 16 17 17 18 21
4 3 3 3 3 4 6 7 10 12 12 11 9 9 9 9 9 9 10 10 10 11 12 12 11 11 10 9 8 9 10 12 12 11 11 11 11 11 12 12 13 14 16
5 5 4 4 3 3 3 4 5 7 8 8 8 7 7 7 5 5 5 6 7 9 10 10 9 9 9 9 8 8 9 10 10 9 10 10 10 10 10 11 12 14 15
6 7 7 6 4 3 2 1 2 4 5 6 6 6 6 5 4 4 4 4 4 6 7 7 8 7 7 8 8 7 7 9 9 9 10 10 10 10 11 13 14 15 16
7 8 9 8 5 3 1 0 0 2 3 4 4 5 5 5 5 4 4 3 3 4 4 5 6 6 6 7 6 5 5 8 9 9 9 9 9 10 11 13 13 14 15
7 8 9 8 4 1 0 0 0 1 2 3 3 4 4 5 6 5 4 3 3 3 3 4 5 6 6 6 6 5 5 6 6 6 6 6 6 7 9 10 9 10 13
5 6 6 5 3 1 0 0 0 1 2 2 2 3 4 5 6 5 4 3 3 3 3 3 4 5 6 6 6 6 5 4 4 4 4 4 4 5 7 8 7 9 10
5 4 4 3 1 0 0 0 0 0 1 1 1 3 4 5 5 4 3 3 3 3 3 3 3 4 5 6 6 6 6 4 3 3 3 3 3 4 5 6 7 8 10
5 4 3 2 0 0 0 1 1 1 0 0 1 2 4 5 4 3 3 3 3 3 3 3 3 3 4 6 6 6 5 3 3 3 3 2 3 3 4 4 5 7 7
5 4 3 2 1 0 1 2 3 3 2 2 1 1 2 4 5 3 2 2 3 3 3 3 3 3 4 5 6 5 3 2 2 3 3 3 2 2 2 2 3 4 6
5 4 3 2 1 0 1 3 4 4 4 3 2 1 0 2 3 3 2 2 3 3 4 4 4 3 4 5 6 5 2 0 1 2 3 3 2 1 1 1 1 3 4
4 3 2 1 0 1 2 3 3 4 4 3 2 1 0 0 1 1 1 2 2 3 4 4 4 4 4 5 6 4 1 0 0 1 1 2 1 0 0 0 0 1 1
3 2 1 0 1 2 3 3 3 3 3 3 2 1 0 0 0 0 0 1 1 1 2 3 4 5 4 5 5 4 1 0 0 0 0 1 0 0 0 0 0 0 0

GEFSSE_con_probscp_240.txt.gz
Probability
2 5 7 7 6 7 8 10 14 17 18 17 13 11 12 13 13 11 8 6 7 7 6 7 7 7 6 6 6 6 7 8 8 8 9 8 8 7 6 5 2 3 5
3 6 8 8 8 8 7 10 13 15 18 18 15 13 14 14 13 12 10 8 7 7 7 7 7 7 7 7 6 7 8 9 9 9 8 6 6 6 6 5 3 4 6
5 8 9 11 11 9 8 9 12 14 16 18 18 17 16 14 13 13 11 9 8 8 8 8 8 9 8 8 8 8 8 9 9 8 7 5 4 6 6 5 5 7 7
7 9 11 13 13 10 7 9 13 14 14 16 17 18 18 16 15 14 13 11 9 9 9 10 10 10 10 10 10 10 9 7 7 6 5 4 4 8 9 7 7 8 8
8 10 13 15 14 10 8 9 12 14 14 15 16 18 19 18 16 15 14 12 10 9 9 10 11 11 12 12 11 11 10 8 6 4 4 4 7 10 11 10 9 8 7
10 11 13 15 13 11 9 10 12 13 14 16 18 19 19 17 15 14 13 12 11 9 9 10 11 12 13 13 12 12 11 10 8 5 4 7 12 14 13 10 10 9 8
10 11 14 15 13 12 12 13 14 15 16 18 20 21 19 16 14 12 10 11 12 12 11 12 13 13 13 12 12 12 12 12 9 6 6 10 15 17 14 11 12 12 12
10 12 14 15 15 15 15 15 16 18 19 21 22 22 20 17 15 12 9 9 11 13 14 16 15 14 13 13 12 13 13 12 9 7 7 10 15 18 15 13 13 15 16
11 12 13 14 15 16 17 16 16 19 21 22 22 21 19 17 16 14 11 10 12 15 16 17 16 14 13 13 13 14 14 12 10 8 8 11 17 20 16 12 12 15 17
11 11 12 12 12 14 16 18 18 19 20 20 19 17 16 16 16 15 14 14 16 17 18 18 16 15 14 13 15 16 16 14 11 10 11 15 20 21 16 12 11 13 16
13 11 11 11 10 11 15 18 18 18 19 18 17 17 16 16 15 15 15 16 16 17 19 19 18 17 16 15 16 17 17 14 12 12 15 18 21 21 18 14 12 13 14
15 13 11 10 10 11 15 18 18 18 18 18 18 20 19 18 16 15 15 15 13 14 17 18 18 17 16 16 15 15 15 14 14 15 17 21 23 22 20 18 16 15 15
15 14 12 10 11 13 16 19 19 19 20 19 20 22 21 19 17 16 15 13 10 10 12 14 14 14 13 13 13 12 12 13 16 18 20 25 25 23 21 20 18 18 18
14 13 11 11 13 16 17 19 19 20 20 20 20 21 20 18 17 15 13 10 8 8 9 10 11 12 11 9 8 8 8 12 16 19 21 24 25 24 22 21 19 18 19
12 11 11 12 15 17 18 18 16 15 16 17 18 17 16 16 16 14 11 8 7 7 7 8 9 9 9 7 5 5 6 9 13 16 18 20 21 22 22 21 19 18 17
8 9 10 12 15 17 19 17 12 9 11 13 14 13 13 14 14 13 11 8 7 6 7 7 7 7 7 5 3 3 5 8 10 13 14 16 17 19 20 21 21 19 18
5 7 9 11 14 17 19 16 11 8 9 11 11 10 11 12 12 12 12 9 6 6 6 6 6 6 6 5 3 3 4 6 8 10 11 13 14 16 18 20 21 21 20
6 7 8 10 12 16 18 16 12 9 9 10 9 8 9 10 10 11 11 8 6 5 5 5 4 4 4 4 3 2 2 4 5 6 7 9 11 13 14 16 19 20 20
7 7 8 10 11 14 16 15 12 9 8 8 7 7 7 7 7 8 8 6 5 6 6 5 4 3 3 3 3 2 2 3 4 4 4 6 8 10 11 13 16 17 18
8 9 10 10 12 13 13 12 11 8 6 6 6 6 5 5 5 6 6 5 5 6 7 6 5 4 3 3 3 3 3 4 4 3 3 4 6 7 8 11 13 13 14
10 12 12 11 12 12 12 13 13 10 7 5 5 5 4 4 4 6 6 6 5 6 7 7 5 4 3 3 4 4 3 3 4 4 3 4 4 6 7 9 11 12 13
12 13 13 13 13 13 14 17 17 15 11 6 4 4 4 3 4 6 7 7 6 6 7 8 7 5 4 4 5 5 4 2 1 2 3 4 5 6 8 8 11 14 16
12 13 14 15 15 16 16 18 19 18 14 8 5 4 4 3 4 7 8 8 7 6 7 8 8 6 4 4 5 6 5 3 1 1 2 3 4 7 9 9 9 14 16
9 11 13 15 17 18 17 17 18 18 14 9 6 5 5 5 6 9 10 10 8 7 8 9 8 6 4 4 4 4 5 5 4 3 3 3 5 7 10 10 10 12 14
7 8 10 12 16 18 18 17 17 15 12 8 6 7 6 5 6 10 12 11 10 9 9 9 7 5 4 3 3 3 5 6 6 6 5 6 7 8 11 13 13 12 13
7 8 8 10 14 17 18 18 15 12 10 8 7 7 5 5 6 9 11 12 11 10 9 9 7 5 4 2 2 3 5 6 7 7 7 8 9 9 12 14 14 14 13

GEFSSE_con_probscp_246.txt.gz
Probability
18 19 20 21 18 15 11 7 6 6 5 4 3 3 4 5 5 6 7 8 10 11 11 10 12 12 11 9 9 7 7 7 8 7 7 9 11 14 15 14 14 15 16
22 21 23 23 19 15 11 7 5 5 4 4 4 3 4 5 7 7 7 8 10 11 11 11 12 11 10 9 8 8 7 8 8 7 6 7 9 13 16 17 16 17 17
24 22 23 24 22 17 12 8 6 4 4 5 5 4 4 6 8 9 8 8 9 10 11 12 12 12 11 11 10 9 9 9 9 7 4 4 7 13 19 20 20 19 19
22 22 24 25 23 17 12 9 8 6 5 6 7 6 6 7 9 9 9 9 8 8 9 11 11 11 12 13 13 11 10 10 9 6 4 4 7 16 23 23 20 19 19
22 25 28 26 20 15 12 11 10 9 8 7 8 9 9 8 8 8 9 9 8 8 8 9 9 9 11 13 14 13 13 11 8 5 4 4 9 20 27 25 20 18 20
25 26 27 25 19 15 13 13 12 11 10 10 11 12 12 11 9 8 7 7 8 8 9 9 9 9 10 11 13 14 15 14 9 6 5 6 13 25 31 28 24 21 21
27 26 24 24 23 19 17 17 16 13 12 14 15 15 15 14 12 7 5 5 6 7 8 10 11 13 13 13 13 15 15 15 12 8 6 8 17 28 32 31 28 24 22
27 27 26 25 26 25 23 22 20 18 17 18 19 19 18 16 12 8 5 5 6 6 6 9 13 16 16 15 15 15 15 15 13 10 7 9 18 28 31 29 27 26 25
22 24 23 22 24 26 25 24 24 24 23 23 23 23 22 18 13 10 9 8 9 8 7 8 12 14 16 16 14 13 14 14 13 12 9 10 20 29 30 26 24 25 25
17 16 16 16 18 20 22 24 25 26 27 26 27 27 25 20 15 13 12 13 13 12 12 11 11 13 14 14 13 13 13 13 14 13 12 14 22 28 28 24 22 22 23
14 12 12 14 16 16 18 23 26 26 26 26 27 28 26 22 18 15 14 16 16 15 14 13 13 14 14 13 13 14 14 14 13 13 16 19 23 26 25 24 23 23 24
16 15 16 18 18 18 18 22 24 24 25 26 26 27 26 23 21 19 18 19 18 15 13 13 13 14 14 13 12 13 14 14 12 13 17 23 26 26 25 25 27 28 29
18 19 21 23 23 23 21 20 20 23 26 26 25 26 25 24 23 23 22 22 19 16 14 13 12 11 10 9 8 9 12 13 12 13 18 25 28 27 24 25 28 31 33
20 22 25 28 29 29 26 23 21 24 26 27 26 26 25 23 22 23 24 22 19 17 16 14 10 7 5 3 3 4 8 11 13 15 19 24 26 24 21 24 28 31 32
21 23 27 31 34 35 32 27 26 27 28 27 26 26 25 22 21 22 23 20 17 14 14 12 7 4 3 1 0 1 4 7 11 12 14 18 20 19 19 22 27 29 30
23 25 27 31 35 37 33 30 28 29 29 28 26 25 23 21 20 20 20 19 16 13 11 9 7 5 4 2 1 0 1 4 6 6 6 9 13 16 20 23 27 28 28
23 25 26 29 33 36 33 30 27 26 27 28 28 26 23 21 20 19 19 18 17 15 13 11 9 7 6 3 2 1 2 2 2 2 2 4 7 14 20 25 29 30 30
22 23 25 28 32 34 31 29 26 24 24 27 30 28 25 23 22 20 20 19 17 15 14 13 11 9 7 4 3 3 4 4 2 1 2 3 5 11 18 25 29 30 29
22 24 28 32 34 31 28 27 26 24 23 25 27 27 25 23 22 21 21 19 16 14 14 13 12 10 7 5 4 4 5 6 5 3 3 4 6 9 13 19 25 27 27
27 29 32 34 35 31 26 25 25 23 22 22 22 22 22 20 20 20 21 18 16 15 15 14 12 10 9 7 5 5 5 6 6 6 6 6 8 9 9 12 18 22 23
34 34 34 34 35 31 27 27 28 25 22 19 17 17 19 19 18 19 19 18 16 16 14 13 11 9 9 9 7 5 5 5 5 7 8 9 8 8 8 8 13 17 18
36 35 33 33 34 33 31 33 34 30 24 17 14 15 17 18 16 16 17 16 16 15 13 12 11 9 8 8 7 6 6 5 4 5 7 8 9 9 7 7 10 14 14
35 35 33 34 35 35 35 36 35 31 24 18 16 17 17 15 14 14 15 14 14 14 13 12 11 8 6 5 5 6 6 6 5 4 5 6 8 7 6 5 8 11 12
35 36 36 35 36 34 33 33 31 28 24 21 19 18 16 15 13 13 13 13 13 12 11 9 8 6 4 3 3 4 5 6 6 4 4 5 7 7 6 6 6 8 10
34 36 37 36 34 31 29 29 28 25 24 23 22 19 16 15 14 12 13 13 13 12 9 6 5 4 4 4 4 3 2 3 5 4 3 5 6 7 8 7 7 8 9
32 34 35 35 32 29 27 27 26 24 24 24 23 19 16 15 13 12 13 14 13 12 9 6 5 4 4 5 4 2 0 1 2 3 3 4 6 8 9 9 9 8 8